OE7AOT-2 Weather Reports


Display with metric or nautical units.
time (UTC)temp
F
wind
direction
speed
MPH
gust
MPH
rain 1hr
in
rain 24hr
in
rain mn
in
humidity
%
barometer
mb
20260507150053 54 0 18.0 0.0 0.00 0.00 0.00 72 923.7
20260507145945 54 45 31.0 0.0 0.00 0.00 0.00 72 923.6
20260507145837 53 45 47.0 0.0 0.00 0.00 0.00 72 923.6
20260507145728 53 45 44.0 0.0 0.00 0.00 0.00 72 923.6
20260507145619 53 315 16.0 0.0 0.00 0.00 0.00 72 923.7
20260507145511 53 45 40.0 0.0 0.00 0.00 0.00 72 923.7
20260507145402 53 45 44.0 0.0 0.00 0.00 0.00 72 923.7
20260507145254 53 0 26.0 0.0 0.00 0.00 0.00 72 923.7
20260507145145 53 0 3.0 0.0 0.00 0.00 0.00 72 923.7
20260507145037 53 315 33.0 0.0 0.00 0.00 0.00 72 923.8
20260507144929 53 45 7.0 0.0 0.00 0.00 0.00 73 923.8
20260507144820 53 45 2.0 0.0 0.00 0.00 0.00 73 923.8
20260507144712 53 0 16.0 0.0 0.00 0.00 0.00 73 923.7
20260507144603 53 225 5.0 0.0 0.00 0.00 0.00 72 923.7
20260507144455 52 135 8.0 0.0 0.00 0.00 0.00 72 923.7
20260507144347 52 0 8.0 0.0 0.00 0.00 0.00 72 923.7
20260507144238 52 0 19.0 0.0 0.00 0.00 0.00 72 923.8
20260507144129 52 315 31.0 0.0 0.00 0.00 0.00 72 923.8
20260507144021 52 0 44.0 0.0 0.00 0.00 0.00 72 923.8
20260507143913 52 0 23.0 0.0 0.00 0.00 0.00 72 923.8
20260507143804 52 0 14.0 0.0 0.00 0.00 0.00 72 923.8
20260507143656 52 0 8.0 0.0 0.00 0.00 0.00 72 923.9
20260507143547 52 0 21.0 0.0 0.00 0.00 0.00 72 923.9
20260507143439 52 0 16.0 0.0 0.00 0.00 0.00 72 923.9
20260507143330 52 0 20.0 0.0 0.00 0.00 0.00 72 923.9
20260507143222 52 0 53.0 0.0 0.00 0.00 0.00 72 923.8
20260507143113 52 0 13.0 0.0 0.00 0.00 0.00 72 923.8
20260507143005 52 45 1.0 0.0 0.00 0.00 0.00 72 923.8
20260507142857 52 270 1.0 0.0 0.00 0.00 0.00 72 923.8
20260507142748 52 315 1.0 0.0 0.00 0.00 0.00 72 923.8
20260507142640 52 270 38.0 0.0 0.00 0.00 0.00 72 923.8
20260507142531 52 180 4.0 0.0 0.00 0.00 0.00 72 923.9
20260507142423 52 45 16.0 0.0 0.00 0.00 0.00 72 923.8
20260507142314 52 180 6.0 0.0 0.00 0.00 0.00 72 923.8
20260507142207 52 225 41.0 0.0 0.00 0.00 0.00 72 923.8
20260507142058 52 180 26.0 0.0 0.00 0.00 0.00 72 923.7
20260507141949 52 180 2.0 0.0 0.00 0.00 0.00 72 923.7
20260507141841 52 180 34.0 0.0 0.00 0.00 0.00 72 923.7
20260507141732 52 180 25.0 0.0 0.00 0.00 0.00 72 923.7
20260507141624 52 180 56.0 0.0 0.00 0.00 0.00 72 923.6
20260507141515 52 180 31.0 0.0 0.00 0.00 0.00 72 923.6
20260507141407 52 225 4.0 0.0 0.00 0.00 0.00 72 923.6
20260507141258 52 135 15.0 0.0 0.00 0.00 0.00 72 923.5
20260507141150 52 135 3.0 0.0 0.00 0.00 0.00 72 923.5
20260507140933 52 45 17.0 0.0 0.00 0.00 0.00 72 923.4
20260507140825 52 45 11.0 0.0 0.00 0.00 0.00 72 923.4
20260507140716 52 90 14.0 0.0 0.00 0.00 0.00 71 923.4
20260507140608 52 315 9.0 0.0 0.00 0.00 0.00 71 923.4
20260507140459 52 135 18.0 0.0 0.00 0.00 0.00 71 923.4
20260507140351 52 0 22.0 0.0 0.00 0.00 0.00 71 923.4
20260507140242 52 45 12.0 0.0 0.00 0.00 0.00 71 923.4
20260507140134 53 45 10.0 0.0 0.00 0.00 0.00 71 923.4
20260507140026 52 0 11.0 0.0 0.00 0.00 0.00 71 923.4
20260507135917 52 45 3.0 0.0 0.00 0.00 0.00 71 923.4
20260507135809 52 45 1.0 0.0 0.00 0.00 0.00 71 923.3
20260507135700 53 45 9.0 0.0 0.00 0.00 0.00 70 923.4
20260507135552 53 135 12.0 0.0 0.00 0.00 0.00 70 923.4
20260507135443 53 315 14.0 0.0 0.00 0.00 0.00 70 923.4
20260507135335 53 180 22.0 0.0 0.00 0.00 0.00 69 923.3
20260507135227 53 315 32.0 0.0 0.00 0.00 0.00 69 923.3
20260507135118 53 0 20.0 0.0 0.00 0.00 0.00 69 923.3
20260507135010 53 315 12.0 0.0 0.00 0.00 0.00 69 923.3
20260507134901 54 0 57.0 0.0 0.00 0.00 0.00 69 923.3
20260507134753 54 0 27.0 0.0 0.00 0.00 0.00 69 923.2
20260507134644 55 0 28.0 0.0 0.00 0.00 0.00 69 923.2
20260507134536 55 0 18.0 0.0 0.00 0.00 0.00 69 923.2
20260507134427 55 315 13.0 0.0 0.00 0.00 0.00 69 923.2
20260507134319 56 315 73.0 0.0 0.00 0.00 0.00 69 923.1
20260507134211 56 0 21.0 0.0 0.00 0.00 0.00 68 923.1
20260507134102 56 135 28.0 0.0 0.00 0.00 0.00 68 923.2
20260507133954 57 45 57.0 0.0 0.00 0.00 0.00 68 923.2
20260507133845 57 0 29.0 0.0 0.00 0.00 0.00 68 923.1
20260507133737 58 0 51.0 0.0 0.00 0.00 0.00 67 923.1
20260507133628 58 45 34.0 0.0 0.00 0.00 0.00 67 923.1
20260507133520 59 315 59.0 0.0 0.00 0.00 0.00 67 923.0
20260507133411 59 315 27.0 0.0 0.00 0.00 0.00 66 923.0
20260507133303 60 45 50.0 0.0 0.00 0.00 0.00 66 923.0
20260507133155 61 0 14.0 0.0 0.00 0.00 0.00 66 922.9
20260507133046 61 45 32.0 0.0 0.00 0.00 0.00 66 923.0
20260507132938 62 0 55.0 0.0 0.00 0.00 0.00 66 923.0
20260507132829 62 45 13.0 0.0 0.00 0.00 0.00 66 922.9
20260507132721 62 45 25.0 0.0 0.00 0.00 0.00 67 923.0
20260507132612 63 0 31.0 0.0 0.00 0.00 0.00 66 923.0
20260507132504 63 45 39.0 0.0 0.00 0.00 0.00 66 922.9
20260507132356 63 45 25.0 0.0 0.00 0.00 0.00 66 922.9
20260507132247 64 0 14.0 0.0 0.00 0.00 0.00 65 923.0
20260507132139 64 45 41.0 0.0 0.00 0.00 0.00 65 923.0
20260507132030 65 0 21.0 0.0 0.00 0.00 0.00 65 922.9
20260507131922 65 45 40.0 0.0 0.00 0.00 0.00 65 922.9
20260507131813 66 45 24.0 0.0 0.00 0.00 0.00 65 922.9
20260507131705 66 0 37.0 0.0 0.00 0.00 0.00 65 922.9
20260507131556 66 315 36.0 0.0 0.00 0.00 0.00 66 922.9
20260507131448 65 0 1.0 0.0 0.00 0.00 0.00 67 922.9
20260507131340 65 45 16.0 0.0 0.00 0.00 0.00 67 922.9
20260507131231 65 0 19.0 0.0 0.00 0.00 0.00 67 922.9
20260507131123 65 0 21.0 0.0 0.00 0.00 0.00 67 922.9
20260507131014 64 315 11.0 0.0 0.00 0.00 0.00 67 922.9
20260507130906 64 0 5.0 0.0 0.00 0.00 0.00 67 922.9
20260507130757 63 0 18.0 0.0 0.00 0.00 0.00 67 922.9
20260507130649 63 0 19.0 0.0 0.00 0.00 0.00 67 922.9
20260507130540 63 45 19.0 0.0 0.00 0.00 0.00 67 923.0
20260507130432 63 315 35.0 0.0 0.00 0.00 0.00 66 923.0
20260507130324 63 0 21.0 0.0 0.00 0.00 0.00 66 922.9
20260507130215 63 0 16.0 0.0 0.00 0.00 0.00 65 922.9
20260507130107 63 90 14.0 0.0 0.00 0.00 0.00 65 922.9
20260507125958 64 0 24.0 0.0 0.00 0.00 0.00 64 922.9
20260507125850 64 45 40.0 0.0 0.00 0.00 0.00 63 922.9
20260507125741 64 0 20.0 0.0 0.00 0.00 0.00 63 922.9
20260507125633 65 90 21.0 0.0 0.00 0.00 0.00 63 922.9
20260507125525 65 270 16.0 0.0 0.00 0.00 0.00 62 922.9
20260507125416 65 45 47.0 0.0 0.00 0.00 0.00 62 922.9
20260507125308 66 0 13.0 0.0 0.00 0.00 0.00 62 922.8
20260507125159 66 0 37.0 0.0 0.00 0.00 0.00 62 922.9
20260507125051 66 0 35.0 0.0 0.00 0.00 0.00 63 922.9
20260507124942 66 0 51.0 0.0 0.00 0.00 0.00 63 922.9
20260507124834 66 45 21.0 0.0 0.00 0.00 0.00 64 922.9
20260507124725 67 45 68.0 0.0 0.00 0.00 0.00 64 923.0
20260507124617 67 0 85.0 0.0 0.00 0.00 0.00 64 922.8
20260507124509 67 0 48.0 0.0 0.00 0.00 0.00 64 922.9
20260507124400 67 315 43.0 0.0 0.00 0.00 0.00 64 922.9
20260507124252 67 0 29.0 0.0 0.00 0.00 0.00 64 922.9
20260507124143 67 315 36.0 0.0 0.00 0.00 0.00 64 922.9
20260507124035 67 45 19.0 0.0 0.00 0.00 0.00 64 922.8
20260507123926 66 315 72.0 0.0 0.00 0.00 0.00 64 922.9
20260507123818 66 0 81.0 0.0 0.00 0.00 0.00 64 922.8
20260507123709 65 0 57.0 0.0 0.00 0.00 0.00 64 922.8
20260507123601 65 0 33.0 0.0 0.00 0.00 0.00 64 922.8
20260507123453 65 315 61.0 0.0 0.00 0.00 0.00 64 922.8
20260507123344 65 0 30.0 0.0 0.00 0.00 0.00 64 922.8
20260507123236 65 0 46.0 0.0 0.00 0.00 0.00 63 922.8
20260507123127 65 45 105.0 0.0 0.00 0.00 0.00 63 922.8
20260507123019 66 0 59.0 0.0 0.00 0.00 0.00 64 922.7
20260507122910 66 45 57.0 0.0 0.00 0.00 0.00 64 922.7
20260507122802 66 45 43.0 0.0 0.00 0.00 0.00 63 922.7
20260507122654 67 0 8.0 0.0 0.00 0.00 0.00 63 922.6
20260507122545 67 270 61.0 0.0 0.00 0.00 0.00 63 922.6
20260507122437 67 315 83.0 0.0 0.00 0.00 0.00 63 922.6
20260507122328 67 0 30.0 0.0 0.00 0.00 0.00 63 922.6
20260507122220 68 0 59.0 0.0 0.00 0.00 0.00 63 922.6
20260507122111 68 45 63.0 0.0 0.00 0.00 0.00 62 922.6
20260507122004 68 0 52.0 0.0 0.00 0.00 0.00 61 922.6
20260507121854 69 315 75.0 0.0 0.00 0.00 0.00 61 922.6
20260507121746 69 0 17.0 0.0 0.00 0.00 0.00 60 922.6
20260507121638 70 45 54.0 0.0 0.00 0.00 0.00 60 922.6
20260507121529 71 45 16.0 0.0 0.00 0.00 0.00 59 922.5
20260507121421 72 0 24.0 0.0 0.00 0.00 0.00 58 922.6
20260507121312 73 0 68.0 0.0 0.00 0.00 0.00 58 922.5
20260507121204 74 45 45.0 0.0 0.00 0.00 0.00 57 922.4
20260507121055 75 45 53.0 0.0 0.00 0.00 0.00 57 922.4
20260507120947 77 0 36.0 0.0 0.00 0.00 0.00 57 922.4
20260507120838 78 45 40.0 0.0 0.00 0.00 0.00 56 922.4
20260507120730 79 180 14.0 0.0 0.00 0.00 0.00 55 922.3
20260507120622 81 90 19.0 0.0 0.00 0.00 0.00 54 922.3
20260507120513 82 0 28.0 0.0 0.00 0.00 0.00 52 922.3
20260507120405 84 45 78.0 0.0 0.00 0.00 0.00 50 922.2
20260507120256 86 45 37.0 0.0 0.00 0.00 0.00 49 922.2
20260507120148 89 0 44.0 0.0 0.00 0.00 0.00 47 922.2
20260507120039 92 315 63.0 0.0 0.00 0.00 0.00 46 922.1
20260507115931 96 0 44.0 0.0 0.00 0.00 0.00 45 922.1
20260507115823 10 0 45.0 0.0 0.00 0.00 0.00 43 922.2
20260507115714 100 0 37.0 0.0 0.00 0.00 0.00 43 922.2
20260507115606 99 315 20.0 0.0 0.00 0.00 0.00 44 922.3
20260507115457 98 315 30.0 0.0 0.00 0.00 0.00 45 922.3
20260507115349 95 45 43.0 0.0 0.00 0.00 0.00 46 922.4
20260507115240 91 315 70.0 0.0 0.00 0.00 0.00 49 922.4
20260507115132 88 315 66.0 0.0 0.00 0.00 0.00 50 922.4
20260507115023 83 0 24.0 0.0 0.00 0.00 0.00 53 922.5
20260507114915 79 135 28.0 0.0 0.00 0.00 0.00 55 922.5
20260507114807 77 0 60.0 0.0 0.00 0.00 0.00 56 922.6
20260507114658 77 45 89.0 0.0 0.00 0.00 0.00 56 922.5
20260507114550 75 0 37.0 0.0 0.00 0.00 0.00 59 922.5
20260507114442 75 45 48.0 0.0 0.00 0.00 0.00 59 922.6
20260507114333 73 45 15.0 0.0 0.00 0.00 0.00 61 922.7
20260507114224 68 225 35.0 0.0 0.00 0.00 0.00 63 922.7
20260507114116 64 270 32.0 0.0 0.00 0.00 0.00 64 922.8
20260507114008 62 45 24.0 0.0 0.00 0.00 0.00 65 922.8
20260507113859 61 315 46.0 0.0 0.00 0.00 0.00 66 922.8
20260507113751 59 0 25.0 0.0 0.00 0.00 0.00 66 922.8
20260507113642 58 0 48.0 0.0 0.00 0.00 0.00 67 922.9
20260507113534 58 45 47.0 0.0 0.00 0.00 0.00 67 922.8
20260507113425 57 270 39.0 0.0 0.00 0.00 0.00 68 922.9
20260507113317 56 45 38.0 0.0 0.00 0.00 0.00 68 922.9
20260507113208 56 315 39.0 0.0 0.00 0.00 0.00 69 922.9
20260507113100 56 0 29.0 0.0 0.00 0.00 0.00 70 922.9
20260507112951 55 0 63.0 0.0 0.00 0.00 0.00 70 922.9
20260507112843 55 0 36.0 0.0 0.00 0.00 0.00 70 922.9
20260507112735 55 0 96.0 0.0 0.00 0.00 0.00 71 922.9
20260507112626 54 0 32.0 0.0 0.00 0.00 0.00 71 922.9
20260507112518 54 0 28.0 0.0 0.00 0.00 0.00 71 923.0
20260507112409 54 0 9.0 0.0 0.00 0.00 0.00 71 923.0
20260507112301 54 315 50.0 0.0 0.00 0.00 0.00 71 923.0
20260507112152 54 45 13.0 0.0 0.00 0.00 0.00 71 923.0
20260507112044 53 90 18.0 0.0 0.00 0.00 0.00 71 923.0
20260507111936 53 90 21.0 0.0 0.00 0.00 0.00 71 923.0
20260507111827 53 135 44.0 0.0 0.00 0.00 0.00 71 923.0
20260507111719 53 0 39.0 0.0 0.00 0.00 0.00 71 922.9
20260507111610 53 180 27.0 0.0 0.00 0.00 0.00 71 923.0
20260507111503 53 0 38.0 0.0 0.00 0.00 0.00 71 923.0
20260507111353 53 315 23.0 0.0 0.00 0.00 0.00 70 922.9
20260507111245 53 135 31.0 0.0 0.00 0.00 0.00 70 923.0
20260507111136 53 315 63.0 0.0 0.00 0.00 0.00 70 923.0
20260507111028 53 0 46.0 0.0 0.00 0.00 0.00 70 923.0
20260507110920 53 0 28.0 0.0 0.00 0.00 0.00 70 922.9
20260507110811 54 45 21.0 0.0 0.00 0.00 0.00 70 923.0
20260507110703 54 315 52.0 0.0 0.00 0.00 0.00 69 923.0
20260507110554 54 0 61.0 0.0 0.00 0.00 0.00 69 922.9
20260507110446 54 0 57.0 0.0 0.00 0.00 0.00 69 923.0
20260507110337 54 315 30.0 0.0 0.00 0.00 0.00 69 923.0
20260507110229 55 315 26.0 0.0 0.00 0.00 0.00 68 923.1
20260507110120 55 90 50.0 0.0 0.00 0.00 0.00 68 923.0
20260507110012 55 45 31.0 0.0 0.00 0.00 0.00 68 922.9
20260507105904 55 0 35.0 0.0 0.00 0.00 0.00 68 923.0
20260507105755 55 45 47.0 0.0 0.00 0.00 0.00 68 922.9
20260507105647 55 0 42.0 0.0 0.00 0.00 0.00 68 922.9
20260507105538 55 90 39.0 0.0 0.00 0.00 0.00 68 922.9
20260507105430 56 0 67.0 0.0 0.00 0.00 0.00 68 922.9
20260507105321 56 315 42.0 0.0 0.00 0.00 0.00 68 922.8
20260507105213 56 45 13.0 0.0 0.00 0.00 0.00 68 922.9
20260507105105 56 0 27.0 0.0 0.00 0.00 0.00 68 922.9
20260507104956 56 90 22.0 0.0 0.00 0.00 0.00 68 922.9
20260507104848 55 0 42.0 0.0 0.00 0.00 0.00 68 923.0
20260507104739 55 135 20.0 0.0 0.00 0.00 0.00 68 923.0
20260507104631 55 315 35.0 0.0 0.00 0.00 0.00 68 923.0
20260507104522 55 315 35.0 0.0 0.00 0.00 0.00 67 923.0
20260507104414 55 315 56.0 0.0 0.00 0.00 0.00 67 923.0
20260507104305 55 45 38.0 0.0 0.00 0.00 0.00 67 922.9
20260507104158 56 180 24.0 0.0 0.00 0.00 0.00 67 922.9
20260507104049 56 315 55.0 0.0 0.00 0.00 0.00 67 923.0
20260507103940 56 0 55.0 0.0 0.00 0.00 0.00 67 922.9
20260507103832 57 45 31.0 0.0 0.00 0.00 0.00 66 922.9
20260507103723 57 45 43.0 0.0 0.00 0.00 0.00 66 922.9
20260507103615 58 315 12.0 0.0 0.00 0.00 0.00 66 923.0
20260507103506 58 0 61.0 0.0 0.00 0.00 0.00 66 923.0
20260507103358 58 0 21.0 0.0 0.00 0.00 0.00 67 922.9
20260507103249 59 90 27.0 0.0 0.00 0.00 0.00 67 922.9
20260507103141 59 90 17.0 0.0 0.00 0.00 0.00 67 922.9
20260507103033 59 135 38.0 0.0 0.00 0.00 0.00 68 922.8
20260507102924 59 315 12.0 0.0 0.00 0.00 0.00 68 922.9
20260507102816 59 225 18.0 0.0 0.00 0.00 0.00 68 922.9
20260507102707 59 270 29.0 0.0 0.00 0.00 0.00 68 922.8
20260507102559 60 315 75.0 0.0 0.00 0.00 0.00 68 922.8
20260507102450 60 45 57.0 0.0 0.00 0.00 0.00 68 922.8
20260507102342 61 0 12.0 0.0 0.00 0.00 0.00 68 922.7
20260507102234 61 0 45.0 0.0 0.00 0.00 0.00 68 922.8
20260507102125 61 0 40.0 0.0 0.00 0.00 0.00 68 922.8
20260507102017 61 315 37.0 0.0 0.00 0.00 0.00 68 922.8
20260507101908 61 45 88.0 0.0 0.00 0.00 0.00 68 922.8
20260507101800 61 0 17.0 0.0 0.00 0.00 0.00 68 922.7
20260507101651 61 225 81.0 0.0 0.00 0.00 0.00 68 922.8
20260507101543 61 45 18.0 0.0 0.00 0.00 0.00 68 922.8
20260507101434 61 45 59.0 0.0 0.00 0.00 0.00 68 922.8
20260507101326 61 45 19.0 0.0 0.00 0.00 0.00 68 922.7
20260507101218 61 90 53.0 0.0 0.00 0.00 0.00 68 922.8
20260507101109 60 45 12.0 0.0 0.00 0.00 0.00 68 922.8
20260507101001 60 90 36.0 0.0 0.00 0.00 0.00 68 922.7
20260507100852 60 135 33.0 0.0 0.00 0.00 0.00 68 922.8
20260507100744 60 0 59.0 0.0 0.00 0.00 0.00 68 922.8
20260507100635 60 45 9.0 0.0 0.00 0.00 0.00 68 922.8
20260507100527 60 90 44.0 0.0 0.00 0.00 0.00 68 922.8
20260507100418 60 315 39.0 0.0 0.00 0.00 0.00 68 922.8
20260507100310 60 45 35.0 0.0 0.00 0.00 0.00 67 922.8
20260507100202 61 315 81.0 0.0 0.00 0.00 0.00 67 922.7
20260507100053 61 45 44.0 0.0 0.00 0.00 0.00 67 922.6
20260507095945 61 315 33.0 0.0 0.00 0.00 0.00 67 922.7
20260507095836 61 45 27.0 0.0 0.00 0.00 0.00 67 922.7
20260507095728 61 315 46.0 0.0 0.00 0.00 0.00 67 922.7
20260507095619 61 90 19.0 0.0 0.00 0.00 0.00 67 922.7
20260507095511 61 315 36.0 0.0 0.00 0.00 0.00 66 922.7
20260507095403 61 45 96.0 0.0 0.00 0.00 0.00 66 922.7
20260507095254 61 0 24.0 0.0 0.00 0.00 0.00 66 922.5
20260507095146 62 90 72.0 0.0 0.00 0.00 0.00 65 922.6
20260507095037 62 0 36.0 0.0 0.00 0.00 0.00 65 922.5
20260507094929 63 45 43.0 0.0 0.00 0.00 0.00 65 922.6
20260507094820 64 315 29.0 0.0 0.00 0.00 0.00 64 922.6
20260507094712 65 135 45.0 0.0 0.00 0.00 0.00 64 922.6
20260507094603 65 0 57.0 0.0 0.00 0.00 0.00 63 922.5
20260507094455 66 0 24.0 0.0 0.00 0.00 0.00 63 922.5
20260507094347 67 45 16.0 0.0 0.00 0.00 0.00 62 922.5
20260507094238 69 315 8.0 0.0 0.00 0.00 0.00 61 922.5
20260507094130 70 180 85.0 0.0 0.00 0.00 0.00 60 922.5
20260507094021 71 0 13.0 0.0 0.00 0.00 0.00 59 922.4
20260507093913 73 315 23.0 0.0 0.00 0.00 0.00 58 922.5
20260507093804 74 0 37.0 0.0 0.00 0.00 0.00 57 922.5
20260507093656 76 315 38.0 0.0 0.00 0.00 0.00 56 922.4
20260507093547 79 45 62.0 0.0 0.00 0.00 0.00 55 922.3
20260507093439 81 45 67.0 0.0 0.00 0.00 0.00 54 922.3
20260507093331 83 0 43.0 0.0 0.00 0.00 0.00 54 922.2
20260507093222 85 315 68.0 0.0 0.00 0.00 0.00 55 922.2
20260507093114 86 0 51.0 0.0 0.00 0.00 0.00 55 922.1
20260507093005 86 135 46.0 0.0 0.00 0.00 0.00 55 922.1
20260507092857 86 45 87.0 0.0 0.00 0.00 0.00 55 922.0
20260507092748 86 45 57.0 0.0 0.00 0.00 0.00 55 922.0
20260507092640 85 45 123.0 0.0 0.00 0.00 0.00 56 922.1
20260507092532 84 0 53.0 0.0 0.00 0.00 0.00 56 922.0
20260507092423 84 0 29.0 0.0 0.00 0.00 0.00 56 922.1
20260507092315 83 0 40.0 0.0 0.00 0.00 0.00 58 922.1
20260507092206 82 0 44.0 0.0 0.00 0.00 0.00 58 922.2
20260507092058 81 0 76.0 0.0 0.00 0.00 0.00 58 922.1
20260507091949 80 0 73.0 0.0 0.00 0.00 0.00 59 922.1
20260507091841 80 0 71.0 0.0 0.00 0.00 0.00 59 922.1
20260507091732 79 0 18.0 0.0 0.00 0.00 0.00 59 922.1
20260507091624 79 225 63.0 0.0 0.00 0.00 0.00 58 922.1
20260507091516 80 90 22.0 0.0 0.00 0.00 0.00 58 922.0
20260507091407 80 315 90.0 0.0 0.00 0.00 0.00 58 922.1
20260507091259 80 135 82.0 0.0 0.00 0.00 0.00 59 922.0
20260507091150 80 45 39.0 0.0 0.00 0.00 0.00 59 922.0
20260507091042 80 45 44.0 0.0 0.00 0.00 0.00 60 922.1
20260507090933 79 45 40.0 0.0 0.00 0.00 0.00 60 922.1
20260507090825 79 45 72.0 0.0 0.00 0.00 0.00 60 922.0
20260507090716 79 0 44.0 0.0 0.00 0.00 0.00 59 922.0
20260507090608 79 90 51.0 0.0 0.00 0.00 0.00 60 922.0
20260507090500 79 0 25.0 0.0 0.00 0.00 0.00 61 922.0
20260507090351 78 315 30.0 0.0 0.00 0.00 0.00 62 922.1
20260507090243 77 0 35.0 0.0 0.00 0.00 0.00 62 922.0
20260507090134 77 315 51.0 0.0 0.00 0.00 0.00 63 922.1
20260507090026 76 0 51.0 0.0 0.00 0.00 0.00 63 922.0
20260507085917 76 0 61.0 0.0 0.00 0.00 0.00 63 922.1
20260507085809 75 45 21.0 0.0 0.00 0.00 0.00 64 922.1
20260507085700 74 90 78.0 0.0 0.00 0.00 0.00 64 922.1
20260507085552 74 45 26.0 0.0 0.00 0.00 0.00 64 922.1
20260507085444 74 180 78.0 0.0 0.00 0.00 0.00 65 922.2
20260507085335 73 45 64.0 0.0 0.00 0.00 0.00 65 922.2
20260507085227 72 45 80.0 0.0 0.00 0.00 0.00 64 922.2
20260507085118 72 45 33.0 0.0 0.00 0.00 0.00 65 922.2
20260507085010 72 90 40.0 0.0 0.00 0.00 0.00 65 922.2
20260507084901 71 0 70.0 0.0 0.00 0.00 0.00 65 922.3
20260507084753 71 0 23.0 0.0 0.00 0.00 0.00 65 922.2
20260507084645 70 270 76.0 0.0 0.00 0.00 0.00 66 922.2
20260507084536 70 45 68.0 0.0 0.00 0.00 0.00 66 922.3
20260507084428 69 0 66.0 0.0 0.00 0.00 0.00 68 922.2
20260507084319 68 45 70.0 0.0 0.00 0.00 0.00 69 922.2
20260507084211 67 45 52.0 0.0 0.00 0.00 0.00 69 922.1
20260507084102 66 0 61.0 0.0 0.00 0.00 0.00 68 922.3
20260507083954 66 45 64.0 0.0 0.00 0.00 0.00 66 922.3
20260507083845 66 0 79.0 0.0 0.00 0.00 0.00 66 922.4
20260507083738 66 0 32.0 0.0 0.00 0.00 0.00 65 922.3
20260507083629 66 315 25.0 0.0 0.00 0.00 0.00 65 922.3
20260507083520 67 0 86.0 0.0 0.00 0.00 0.00 65 922.3
20260507083412 67 45 50.0 0.0 0.00 0.00 0.00 65 922.2
20260507083303 67 45 55.0 0.0 0.00 0.00 0.00 66 922.2
20260507083155 67 315 34.0 0.0 0.00 0.00 0.00 67 922.3
20260507083047 67 90 52.0 0.0 0.00 0.00 0.00 68 922.2
20260507082938 67 45 19.0 0.0 0.00 0.00 0.00 70 922.1
20260507082829 65 315 77.0 0.0 0.00 0.00 0.00 71 922.2
20260507082721 64 0 42.0 0.0 0.00 0.00 0.00 70 922.2
20260507082613 63 45 35.0 0.0 0.00 0.00 0.00 69 922.2
20260507082504 63 0 49.0 0.0 0.00 0.00 0.00 69 922.2
20260507082356 63 0 69.0 0.0 0.00 0.00 0.00 69 922.2
20260507082247 63 0 70.0 0.0 0.00 0.00 0.00 69 922.1
20260507082139 63 0 15.0 0.0 0.00 0.00 0.00 69 922.1
20260507082030 64 0 19.0 0.0 0.00 0.00 0.00 69 922.2
20260507081922 64 180 46.0 0.0 0.00 0.00 0.00 69 922.2
20260507081813 64 0 83.0 0.0 0.00 0.00 0.00 70 922.2
20260507081705 64 45 53.0 0.0 0.00 0.00 0.00 69 922.2
20260507081557 64 45 25.0 0.0 0.00 0.00 0.00 69 922.2
20260507081448 63 135 29.0 0.0 0.00 0.00 0.00 69 922.2
20260507081340 63 135 16.0 0.0 0.00 0.00 0.00 69 922.2
20260507081231 63 315 53.0 0.0 0.00 0.00 0.00 68 922.2
20260507081123 63 315 57.0 0.0 0.00 0.00 0.00 68 922.1
20260507081014 63 45 12.0 0.0 0.00 0.00 0.00 68 922.1
20260507080906 63 225 47.0 0.0 0.00 0.00 0.00 68 922.2
20260507080758 63 0 33.0 0.0 0.00 0.00 0.00 68 922.2
20260507080649 63 315 64.0 0.0 0.00 0.00 0.00 68 922.2
20260507080541 63 315 27.0 0.0 0.00 0.00 0.00 68 922.2
20260507080432 63 90 53.0 0.0 0.00 0.00 0.00 68 922.2
20260507080324 63 270 16.0 0.0 0.00 0.00 0.00 69 922.1
20260507080215 64 45 70.0 0.0 0.00 0.00 0.00 69 922.1
20260507080107 64 0 90.0 0.0 0.00 0.00 0.00 70 922.1
20260507075958 64 45 16.0 0.0 0.00 0.00 0.00 70 922.2
20260507075850 64 90 43.0 0.0 0.00 0.00 0.00 71 922.1
20260507075742 63 315 29.0 0.0 0.00 0.00 0.00 71 922.1
20260507075633 63 315 26.0 0.0 0.00 0.00 0.00 72 922.1
20260507075525 62 0 35.0 0.0 0.00 0.00 0.00 72 922.1
20260507075416 62 0 45.0 0.0 0.00 0.00 0.00 71 922.1
20260507075308 61 315 29.0 0.0 0.00 0.00 0.00 71 922.1
20260507075159 61 180 31.0 0.0 0.00 0.00 0.00 71 922.1
20260507075051 61 45 16.0 0.0 0.00 0.00 0.00 71 922.1
20260507074942 61 315 54.0 0.0 0.00 0.00 0.00 70 922.1
20260507074834 60 0 27.0 0.0 0.00 0.00 0.00 70 922.1
20260507074726 60 90 51.0 0.0 0.00 0.00 0.00 70 922.2
20260507074618 60 315 45.0 0.0 0.00 0.00 0.00 70 922.1
20260507074509 60 0 54.0 0.0 0.00 0.00 0.00 70 922.2
20260507074400 60 0 76.0 0.0 0.00 0.00 0.00 71 922.1
20260507074252 60 0 42.0 0.0 0.00 0.00 0.00 71 922.1
20260507074143 60 45 30.0 0.0 0.00 0.00 0.00 72 922.2
20260507074035 60 0 56.0 0.0 0.00 0.00 0.00 72 922.1
20260507073927 60 315 56.0 0.0 0.00 0.00 0.00 72 922.1
20260507073818 59 0 33.0 0.0 0.00 0.00 0.00 72 922.1
20260507073710 59 90 37.0 0.0 0.00 0.00 0.00 73 922.1
20260507073601 59 45 22.0 0.0 0.00 0.00 0.00 72 922.1
20260507073453 58 270 27.0 0.0 0.00 0.00 0.00 72 922.2
20260507073344 57 45 75.0 0.0 0.00 0.00 0.00 72 922.2
20260507073236 57 0 13.0 0.0 0.00 0.00 0.00 72 922.2
20260507073127 56 180 86.0 0.0 0.00 0.00 0.00 72 922.2
20260507073019 56 0 62.0 0.0 0.00 0.00 0.00 72 922.2
20260507072911 55 0 41.0 0.0 0.00 0.00 0.00 73 922.2
20260507072802 55 45 48.0 0.0 0.00 0.00 0.00 73 922.2
20260507072654 54 45 83.0 0.0 0.00 0.00 0.00 73 922.2
20260507072545 54 0 36.0 0.0 0.00 0.00 0.00 73 922.1
20260507072438 54 0 50.0 0.0 0.00 0.00 0.00 73 922.2
20260507072328 54 0 52.0 0.0 0.00 0.00 0.00 72 922.1
20260507072220 53 90 48.0 0.0 0.00 0.00 0.00 72 922.2
20260507072111 53 0 112.0 0.0 0.00 0.00 0.00 72 922.2
20260507072003 53 0 63.0 0.0 0.00 0.00 0.00 72 922.0
20260507071855 53 45 37.0 0.0 0.00 0.00 0.00 72 922.1
20260507071746 53 0 20.0 0.0 0.00 0.00 0.00 72 922.1
20260507071638 53 315 52.0 0.0 0.00 0.00 0.00 72 922.2
20260507071529 53 0 105.0 0.0 0.00 0.00 0.00 72 922.1
20260507071421 53 0 70.0 0.0 0.00 0.00 0.00 72 922.0
20260507071312 53 45 36.0 0.0 0.00 0.00 0.00 72 922.0
20260507071204 53 45 85.0 0.0 0.00 0.00 0.00 72 922.1
20260507071056 53 90 71.0 0.0 0.00 0.00 0.00 72 922.0
20260507070947 53 45 56.0 0.0 0.00 0.00 0.00 72 922.0
20260507070839 53 315 61.0 0.0 0.00 0.00 0.00 73 922.0
20260507070730 53 45 35.0 0.0 0.00 0.00 0.00 73 922.0
20260507070622 54 90 57.0 0.0 0.00 0.00 0.00 73 922.0
20260507070513 54 0 63.0 0.0 0.00 0.00 0.00 73 922.0
20260507070405 54 0 79.0 0.0 0.00 0.00 0.00 73 921.9
20260507070256 54 0 41.0 0.0 0.00 0.00 0.00 72 921.9
20260507070148 54 90 45.0 0.0 0.00 0.00 0.00 72 922.0
20260507070040 54 0 65.0 0.0 0.00 0.00 0.00 72 921.9
20260507065931 54 0 37.0 0.0 0.00 0.00 0.00 72 921.9
20260507065823 54 45 53.0 0.0 0.00 0.00 0.00 72 922.0
20260507065714 55 45 39.0 0.0 0.00 0.00 0.00 72 922.0
20260507065606 55 315 30.0 0.0 0.00 0.00 0.00 72 921.9
20260507065457 55 0 71.0 0.0 0.00 0.00 0.00 72 922.0
20260507065349 55 0 45.0 0.0 0.00 0.00 0.00 72 922.0
20260507065240 55 0 67.0 0.0 0.00 0.00 0.00 72 922.0
20260507065132 55 45 76.0 0.0 0.00 0.00 0.00 72 921.9
20260507065024 55 0 34.0 0.0 0.00 0.00 0.00 72 921.9
20260507064915 55 315 70.0 0.0 0.00 0.00 0.00 73 921.9
20260507064807 55 0 71.0 0.0 0.00 0.00 0.00 72 921.9
20260507064658 55 45 96.0 0.0 0.00 0.00 0.00 73 921.9
20260507064550 55 45 63.0 0.0 0.00 0.00 0.00 73 922.0
20260507064441 55 45 30.0 0.0 0.00 0.00 0.00 73 921.9
20260507064333 55 0 64.0 0.0 0.00 0.00 0.00 73 922.0
20260507064225 55 45 37.0 0.0 0.00 0.00 0.00 73 921.9
20260507064116 55 315 58.0 0.0 0.00 0.00 0.00 73 921.9
20260507064008 55 0 33.0 0.0 0.00 0.00 0.00 73 922.0
20260507063859 55 270 31.0 0.0 0.00 0.00 0.00 73 922.0
20260507063751 55 0 70.0 0.0 0.00 0.00 0.00 74 921.9
20260507063642 55 90 64.0 0.0 0.00 0.00 0.00 74 921.9
20260507063534 55 0 69.0 0.0 0.00 0.00 0.00 74 921.9
20260507063425 55 45 55.0 0.0 0.00 0.00 0.00 73 921.9
20260507063317 55 0 44.0 0.0 0.00 0.00 0.00 73 921.9
20260507063209 55 45 52.0 0.0 0.00 0.00 0.00 73 921.9
20260507063100 55 0 45.0 0.0 0.00 0.00 0.00 73 921.9
20260507062952 54 45 29.0 0.0 0.00 0.00 0.00 73 921.9
20260507062843 54 0 26.0 0.0 0.00 0.00 0.00 73 921.9
20260507062735 54 90 28.0 0.0 0.00 0.00 0.00 73 921.9
20260507062626 54 315 97.0 0.0 0.00 0.00 0.00 73 921.9
20260507062518 54 315 82.0 0.0 0.00 0.00 0.00 74 921.8
20260507062410 54 315 47.0 0.0 0.00 0.00 0.00 74 921.9
20260507062301 54 45 38.0 0.0 0.00 0.00 0.00 74 921.8
20260507062153 54 315 32.0 0.0 0.00 0.00 0.00 74 921.9
20260507062044 54 45 51.0 0.0 0.00 0.00 0.00 74 921.9
20260507061936 53 0 42.0 0.0 0.00 0.00 0.00 74 921.9
20260507061827 53 90 94.0 0.0 0.00 0.00 0.00 74 921.9
20260507061719 53 0 35.0 0.0 0.00 0.00 0.00 74 921.9
20260507061610 53 315 13.0 0.0 0.00 0.00 0.00 74 921.9
20260507061502 53 90 84.0 0.0 0.00 0.00 0.00 74 921.9
20260507061353 53 0 77.0 0.0 0.00 0.00 0.00 74 921.9
20260507061245 53 0 19.0 0.0 0.00 0.00 0.00 74 921.9
20260507061137 53 45 47.0 0.0 0.00 0.00 0.00 74 921.9
20260507061028 53 0 54.0 0.0 0.00 0.00 0.00 74 921.9
20260507060920 53 45 35.0 0.0 0.00 0.00 0.00 74 921.8
20260507060811 53 270 71.0 0.0 0.00 0.00 0.00 74 921.8
20260507060703 52 135 56.0 0.0 0.00 0.00 0.00 74 921.7
20260507060555 52 45 40.0 0.0 0.00 0.00 0.00 74 921.8
20260507060446 52 45 37.0 0.0 0.00 0.00 0.00 74 921.8
20260507060338 52 45 44.0 0.0 0.00 0.00 0.00 74 921.7
20260507060229 52 0 23.0 0.0 0.00 0.00 0.00 74 921.8
20260507060121 53 315 76.0 0.0 0.00 0.00 0.00 74 921.8
20260507060012 53 315 13.0 0.0 0.00 0.00 0.00 74 921.8
20260507055904 53 0 54.0 0.0 0.00 0.00 0.00 74 921.8
20260507055755 53 0 26.0 0.0 0.00 0.00 0.00 74 921.8
20260507055647 53 0 19.0 0.0 0.00 0.00 0.00 74 921.8
20260507055538 53 315 42.0 0.0 0.00 0.00 0.00 74 921.8
20260507055430 53 315 33.0 0.0 0.00 0.00 0.00 74 921.7
20260507055322 53 45 49.0 0.0 0.00 0.00 0.00 74 921.7
20260507055213 53 0 41.0 0.0 0.00 0.00 0.00 74 921.7
20260507055105 53 0 3.0 0.0 0.00 0.00 0.00 74 921.7
20260507054956 53 90 16.0 0.0 0.00 0.00 0.00 74 921.7
20260507054848 53 315 43.0 0.0 0.00 0.00 0.00 74 921.7
20260507054739 53 45 52.0 0.0 0.00 0.00 0.00 74 921.6
20260507054631 53 0 50.0 0.0 0.00 0.00 0.00 74 921.6
20260507054522 53 315 34.0 0.0 0.00 0.00 0.00 74 921.6
20260507054414 53 315 41.0 0.0 0.00 0.00 0.00 74 921.5
20260507054306 53 0 13.0 0.0 0.00 0.00 0.00 74 921.6
20260507054158 53 90 54.0 0.0 0.00 0.00 0.00 74 921.5
20260507054049 53 0 73.0 0.0 0.00 0.00 0.00 74 921.4
20260507053940 53 45 57.0 0.0 0.00 0.00 0.00 74 921.5
20260507053832 53 0 35.0 0.0 0.00 0.00 0.00 74 921.4
20260507053723 53 45 19.0 0.0 0.00 0.00 0.00 74 921.5
20260507053615 53 90 79.0 0.0 0.00 0.00 0.00 75 921.5
20260507053507 53 45 81.0 0.0 0.00 0.00 0.00 75 921.5
20260507053358 53 45 50.0 0.0 0.00 0.00 0.00 75 921.5
20260507053250 53 0 48.0 0.0 0.00 0.00 0.00 75 921.5
20260507053141 53 45 31.0 0.0 0.00 0.00 0.00 75 921.4
20260507053033 52 315 21.0 0.0 0.00 0.00 0.00 75 921.5
20260507052924 52 315 60.0 0.0 0.00 0.00 0.00 75 921.5
20260507052816 52 0 51.0 0.0 0.00 0.00 0.00 75 921.4
20260507052707 52 45 49.0 0.0 0.00 0.00 0.00 75 921.4
20260507052559 51 45 20.0 0.0 0.00 0.00 0.00 75 921.4
20260507052451 51 45 41.0 0.0 0.00 0.00 0.00 75 921.4
20260507052342 51 45 75.0 0.0 0.00 0.00 0.00 75 921.4
20260507052234 51 45 57.0 0.0 0.00 0.00 0.00 75 921.2
20260507052125 50 0 89.0 0.0 0.00 0.00 0.00 75 921.3
20260507052017 50 315 31.0 0.0 0.00 0.00 0.00 75 921.3
20260507051908 50 225 45.0 0.0 0.00 0.00 0.00 75 921.3
20260507051800 50 0 45.0 0.0 0.00 0.00 0.00 75 921.2
20260507051652 50 45 56.0 0.0 0.00 0.00 0.00 75 921.4
20260507051543 50 45 7.0 0.0 0.00 0.00 0.00 75 921.3
20260507051435 50 315 53.0 0.0 0.00 0.00 0.00 75 921.3
20260507051326 50 270 49.0 0.0 0.00 0.00 0.00 75 921.2
20260507051218 50 0 26.0 0.0 0.00 0.00 0.00 75 921.3
20260507051109 50 0 78.0 0.0 0.00 0.00 0.00 75 921.3
20260507051001 50 45 40.0 0.0 0.00 0.00 0.00 76 921.3
20260507050852 50 0 70.0 0.0 0.00 0.00 0.00 76 921.3
20260507050744 50 45 46.0 0.0 0.00 0.00 0.00 76 921.2
20260507050636 50 0 39.0 0.0 0.00 0.00 0.00 76 921.2
20260507050527 50 0 85.0 0.0 0.00 0.00 0.00 76 921.2
20260507050419 50 0 32.0 0.0 0.00 0.00 0.00 76 921.2
20260507050310 50 315 57.0 0.0 0.00 0.00 0.00 76 921.3
20260507050202 50 0 74.0 0.0 0.00 0.00 0.00 76 921.3
20260507050053 50 315 93.0 0.0 0.00 0.00 0.00 75 921.1
20260507045945 49 135 30.0 0.0 0.00 0.00 0.00 75 921.2
20260507045836 49 315 31.0 0.0 0.00 0.00 0.00 75 921.2
20260507045728 49 0 37.0 0.0 0.00 0.00 0.00 75 921.2
20260507045620 49 0 44.0 0.0 0.00 0.00 0.00 75 921.2
20260507045511 49 0 14.0 0.0 0.00 0.00 0.00 76 921.2
20260507045254 49 315 40.0 0.0 0.00 0.00 0.00 76 921.0
20260507045146 49 45 27.0 0.0 0.00 0.00 0.00 76 921.1
20260507045037 49 315 55.0 0.0 0.00 0.00 0.00 76 921.1
20260507044929 49 135 24.0 0.0 0.00 0.00 0.00 76 921.1
20260507044820 49 0 41.0 0.0 0.00 0.00 0.00 76 921.1
20260507044712 49 0 44.0 0.0 0.00 0.00 0.00 76 921.1
20260507044604 49 0 50.0 0.0 0.00 0.00 0.00 76 921.1
20260507044455 49 45 42.0 0.0 0.00 0.00 0.00 76 921.1
20260507044347 49 0 80.0 0.0 0.00 0.00 0.00 76 921.1
20260507044238 49 0 52.0 0.0 0.00 0.00 0.00 76 921.0
20260507044130 49 45 31.0 0.0 0.00 0.00 0.00 76 921.1
20260507044021 49 45 35.0 0.0 0.00 0.00 0.00 76 921.1
20260507043913 49 0 40.0 0.0 0.00 0.00 0.00 76 921.1
20260507043805 49 0 43.0 0.0 0.00 0.00 0.00 76 921.1
20260507043656 49 0 24.0 0.0 0.00 0.00 0.00 76 921.1
20260507043548 49 45 13.0 0.0 0.00 0.00 0.00 76 921.1
20260507043439 49 0 1.0 0.0 0.00 0.00 0.00 76 921.1
20260507043331 49 90 0.0 0.0 0.00 0.00 0.00 76 921.1
20260507043222 49 0 8.0 0.0 0.00 0.00 0.00 76 921.2
20260507043114 49 0 28.0 0.0 0.00 0.00 0.00 76 921.2
20260507043005 48 180 1.0 0.0 0.00 0.00 0.00 76 921.1
20260507042857 48 0 20.0 0.0 0.00 0.00 0.00 76 921.2
20260507042749 48 315 24.0 0.0 0.00 0.00 0.00 76 921.1
20260507042640 48 45 25.0 0.0 0.00 0.00 0.00 76 921.1
20260507042532 48 0 22.0 0.0 0.00 0.00 0.00 76 921.1
20260507042423 48 45 15.0 0.0 0.00 0.00 0.00 76 921.1
20260507042315 48 0 6.0 0.0 0.00 0.00 0.00 76 921.1
20260507042206 48 0 2.0 0.0 0.00 0.00 0.00 76 921.1
20260507042058 48 45 1.0 0.0 0.00 0.00 0.00 76 921.1
20260507041949 48 45 26.0 0.0 0.00 0.00 0.00 77 921.1
20260507041841 48 45 23.0 0.0 0.00 0.00 0.00 77 921.1
20260507041733 48 0 19.0 0.0 0.00 0.00 0.00 77 921.0
20260507041624 48 0 21.0 0.0 0.00 0.00 0.00 77 921.0
20260507041516 48 45 2.0 0.0 0.00 0.00 0.00 77 921.0
20260507041407 48 135 18.0 0.0 0.00 0.00 0.00 77 921.0
20260507041259 48 180 22.0 0.0 0.00 0.00 0.00 77 921.0
20260507041150 48 45 8.0 0.0 0.00 0.00 0.00 77 921.0
20260507041042 48 45 29.0 0.0 0.00 0.00 0.00 76 920.9
20260507040934 47 315 5.0 0.0 0.00 0.00 0.00 76 920.9
20260507040825 47 45 13.0 0.0 0.00 0.00 0.00 76 920.9
20260507040717 47 315 11.0 0.0 0.00 0.00 0.00 76 920.9
20260507040608 47 0 22.0 0.0 0.00 0.00 0.00 76 920.9
20260507040500 47 0 25.0 0.0 0.00 0.00 0.00 76 920.9
20260507040351 47 45 14.0 0.0 0.00 0.00 0.00 76 920.9
20260507040243 47 45 8.0 0.0 0.00 0.00 0.00 76 920.8
20260507040134 47 315 26.0 0.0 0.00 0.00 0.00 76 920.8
20260507040026 47 315 26.0 0.0 0.00 0.00 0.00 76 920.8
20260507035918 47 90 37.0 0.0 0.00 0.00 0.00 76 920.8
20260507035809 47 0 22.0 0.0 0.00 0.00 0.00 76 920.8
20260507035701 47 135 59.0 0.0 0.00 0.00 0.00 76 920.8
20260507035553 47 0 57.0 0.0 0.00 0.00 0.00 76 920.7
20260507035444 47 90 52.0 0.0 0.00 0.00 0.00 76 920.7
20260507035336 47 0 19.0 0.0 0.00 0.00 0.00 76 920.7
20260507035228 47 90 48.0 0.0 0.00 0.00 0.00 76 920.7
20260507035120 47 0 32.0 0.0 0.00 0.00 0.00 76 920.7
20260507035011 47 0 63.0 0.0 0.00 0.00 0.00 76 920.7
20260507034903 47 0 69.0 0.0 0.00 0.00 0.00 76 920.7
20260507034755 47 315 28.0 0.0 0.00 0.00 0.00 76 920.7
20260507034647 47 0 53.0 0.0 0.00 0.00 0.00 76 920.7
20260507034538 47 45 70.0 0.0 0.00 0.00 0.00 76 920.7
20260507034430 47 42.0 0.0 0.00 0.00 0.00 76 920.7
20260507034322 47 0 67.0 0.0 0.00 0.00 0.00 76 920.6
20260507034213 47 0 65.0 0.0 0.00 0.00 0.00 76 920.5
20260507034105 47 0 39.0 0.0 0.00 0.00 0.00 76 920.4
20260507033957 47 0 44.0 0.0 0.00 0.00 0.00 76 920.5
20260507033849 47 0 42.0 0.0 0.00 0.00 0.00 76 920.5
20260507033740 47 315 26.0 0.0 0.00 0.00 0.00 76 920.5
20260507033632 47 45 34.0 0.0 0.00 0.00 0.00 76 920.5
20260507033524 47 0 46.0 0.0 0.00 0.00 0.00 76 920.4
20260507033415 47 0 41.0 0.0 0.00 0.00 0.00 76 920.4
20260507033307 47 0 40.0 0.0 0.00 0.00 0.00 76 920.5
20260507033159 47 315 30.0 0.0 0.00 0.00 0.00 76 920.5
20260507033051 47 0 51.0 0.0 0.00 0.00 0.00 76 920.5
20260507032942 47 45 57.0 0.0 0.00 0.00 0.00 76 920.4
20260507032834 47 45 39.0 0.0 0.00 0.00 0.00 76 920.4
20260507032726 47 315 9.0 0.0 0.00 0.00 0.00 76 920.5
20260507032617 47 90 44.0 0.0 0.00 0.00 0.00 76 920.4
20260507032509 47 45 68.0 0.0 0.00 0.00 0.00 76 920.4
20260507032401 47 45 88.0 0.0 0.00 0.00 0.00 76 920.4
20260507032253 47 0 39.0 0.0 0.00 0.00 0.00 76 920.4
20260507032144 47 0 41.0 0.0 0.00 0.00 0.00 76 920.4
20260507032036 47 315 49.0 0.0 0.00 0.00 0.00 76 920.4
20260507031928 47 45 36.0 0.0 0.00 0.00 0.00 76 920.4
20260507031820 47 315 48.0 0.0 0.00 0.00 0.00 76 920.5
20260507031711 47 0 63.0 0.0 0.00 0.00 0.00 76 920.5
20260507031603 47 0 40.0 0.0 0.00 0.00 0.00 76 920.4
20260507031455 47 45 43.0 0.0 0.00 0.00 0.00 76 920.5
20260507031347 47 0 20.0 0.0 0.00 0.00 0.00 76 920.5
20260507031238 47 270 33.0 0.0 0.00 0.00 0.00 76 920.5
20260507031130 47 0 27.0 0.0 0.00 0.00 0.00 76 920.5
20260507031022 47 0 20.0 0.0 0.00 0.00 0.00 76 920.5
20260507030913 47 0 18.0 0.0 0.00 0.00 0.00 76 920.5
20260507030805 47 0 26.0 0.0 0.00 0.00 0.00 76 920.5
20260507030657 47 315 28.0 0.0 0.00 0.00 0.00 76 920.5
20260507030549 47 0 33.0 0.0 0.00 0.00 0.00 76 920.5
20260507030440 47 45 49.0 0.0 0.00 0.00 0.00 76 920.5
20260507030332 47 315 42.0 0.0 0.00 0.00 0.00 76 920.6
20260507030224 47 0 29.0 0.0 0.00 0.00 0.00 76 920.6
20260507030116 47 315 22.0 0.0 0.00 0.00 0.00 76 920.5
20260507030007 47 45 72.0 0.0 0.00 0.00 0.00 76 920.6
20260507025859 47 45 20.0 0.0 0.00 0.00 0.00 76 920.6
20260507025751 47 0 74.0 0.0 0.00 0.00 0.00 76 920.6
20260507025642 47 0 75.0 0.0 0.00 0.00 0.00 76 920.5
20260507025534 47 0 17.0 0.0 0.00 0.00 0.00 76 920.5
20260507025426 47 0 37.0 0.0 0.00 0.00 0.00 76 920.6
20260507025318 47 45 62.0 0.0 0.00 0.00 0.00 76 920.5
20260507025209 47 0 67.0 0.0 0.00 0.00 0.00 76 920.5
20260507025101 47 0 27.0 0.0 0.00 0.00 0.00 76 920.5
20260507024953 47 315 21.0 0.0 0.00 0.00 0.00 76 920.6
20260507024844 47 0 14.0 0.0 0.00 0.00 0.00 76 920.6
20260507024736 47 0 43.0 0.0 0.00 0.00 0.00 76 920.5
20260507024628 47 0 48.0 0.0 0.00 0.00 0.00 76 920.5
20260507024520 47 0 26.0 0.0 0.00 0.00 0.00 76 920.5
20260507024411 47 0 39.0 0.0 0.00 0.00 0.00 76 920.5
20260507024303 47 45 61.0 0.0 0.00 0.00 0.00 76 920.5
20260507024155 47 45 13.0 0.0 0.00 0.00 0.00 76 920.5
20260507024046 47 0 55.0 0.0 0.00 0.00 0.00 76 920.5
20260507023938 47 0 19.0 0.0 0.00 0.00 0.00 76 920.5
20260507023830 47 315 37.0 0.0 0.00 0.00 0.00 76 920.6
20260507023722 47 0 60.0 0.0 0.00 0.00 0.00 76 920.5
20260507023613 47 0 75.0 0.0 0.00 0.00 0.00 76 920.6
20260507023505 47 45 25.0 0.0 0.00 0.00 0.00 76 920.5
20260507023357 47 0 66.0 0.0 0.00 0.00 0.00 76 920.6
20260507023249 47 315 61.0 0.0 0.00 0.00 0.00 76 920.5
20260507023140 47 45 62.0 0.0 0.00 0.00 0.00 76 920.5
20260507023032 46 0 57.0 0.0 0.00 0.00 0.00 76 920.6
20260507022924 46 315 46.0 0.0 0.00 0.00 0.00 76 920.5
20260507022815 46 45 49.0 0.0 0.00 0.00 0.00 76 920.5
20260507022708 46 0 11.0 0.0 0.00 0.00 0.00 76 920.5
20260507022559 46 315 81.0 0.0 0.00 0.00 0.00 76 920.6
20260507022451 46 45 73.0 0.0 0.00 0.00 0.00 76 920.5
20260507022342 46 315 33.0 0.0 0.00 0.00 0.00 76 920.5
20260507022234 46 0 19.0 0.0 0.00 0.00 0.00 76 920.5
20260507022126 46 90 59.0 0.0 0.00 0.00 0.00 76 920.5
20260507022017 45 0 73.0 0.0 0.00 0.00 0.00 76 920.5
20260507021909 45 0 48.0 0.0 0.00 0.00 0.00 76 920.5
20260507021801 45 0 31.0 0.0 0.00 0.00 0.00 76 920.5
20260507021653 45 0 15.0 0.0 0.00 0.00 0.00 76 920.5
20260507021544 45 315 29.0 0.0 0.00 0.00 0.00 75 920.5
20260507021436 45 315 39.0 0.0 0.00 0.00 0.00 75 920.5
20260507021328 45 45 30.0 0.0 0.00 0.00 0.00 75 920.5
20260507021220 45 0 3.0 0.0 0.00 0.00 0.00 75 920.5
20260507021003 44 45 15.0 0.0 0.00 0.00 0.00 74 920.5
20260507020855 44 315 11.0 0.0 0.00 0.00 0.00 74 920.5
20260507020746 44 315 10.0 0.0 0.00 0.00 0.00 74 920.5
20260507020638 44 0 16.0 0.0 0.00 0.00 0.00 74 920.5
20260507020530 45 315 12.0 0.0 0.00 0.00 0.00 74 920.5
20260507020422 45 225 0.0 0.0 0.00 0.00 0.00 73 920.5
20260507020313 45 270 2.0 0.0 0.00 0.00 0.00 73 920.5
20260507020205 45 270 0.0 0.0 0.00 0.00 0.00 73 920.4
20260507015949 45 315 8.0 0.0 0.00 0.00 0.00 74 920.3
20260507015840 45 315 0.0 0.0 0.00 0.00 0.00 74 920.4
20260507015732 45 315 8.0 0.0 0.00 0.00 0.00 74 920.3
20260507015624 46 315 12.0 0.0 0.00 0.00 0.00 74 920.4
20260507015515 46 0 7.0 0.0 0.00 0.00 0.00 74 920.3
20260507015408 46 45 0.0 0.0 0.00 0.00 0.00 74 920.4
20260507015259 46 315 2.0 0.0 0.00 0.00 0.00 74 920.3
20260507015151 46 225 0.0 0.0 0.00 0.00 0.00 74 920.3
20260507015042 46 45 9.0 0.0 0.00 0.00 0.00 75 920.3
20260507014934 46 315 2.0 0.0 0.00 0.00 0.00 75 920.3
20260507014826 46 45 17.0 0.0 0.00 0.00 0.00 75 920.3
20260507014718 46 0 25.0 0.0 0.00 0.00 0.00 75 920.3
20260507014609 46 0 39.0 0.0 0.00 0.00 0.00 75 920.3
20260507014501 47 45 33.0 0.0 0.00 0.00 0.00 75 920.3
20260507014353 47 0 15.0 0.0 0.00 0.00 0.00 75 920.3
20260507014244 47 270 14.0 0.0 0.00 0.00 0.00 75 920.3
20260507014136 47 0 30.0 0.0 0.00 0.00 0.00 75 920.4
20260507014028 47 0 6.0 0.0 0.00 0.00 0.00 75 920.3
20260507013920 47 45 22.0 0.0 0.00 0.00 0.00 75 920.4
20260507013811 47 315 3.0 0.0 0.00 0.00 0.00 76 920.3
20260507013703 47 90 18.0 0.0 0.00 0.00 0.00 76 920.4
20260507013555 46 315 55.0 0.0 0.00 0.00 0.00 76 920.4
20260507013446 46 315 8.0 0.0 0.00 0.00 0.00 76 920.4
20260507013338 46 270 39.0 0.0 0.00 0.00 0.00 76 920.3
20260507013230 46 0 7.0 0.0 0.00 0.00 0.00 75 920.3
20260507013122 46 0 30.0 0.0 0.00 0.00 0.00 76 920.3
20260507013013 46 0 7.0 0.0 0.00 0.00 0.00 75 920.3
20260507012905 46 0 54.0 0.0 0.00 0.00 0.00 75 920.3
20260507012757 46 0 42.0 0.0 0.00 0.00 0.00 75 920.3
20260507012648 46 0 33.0 0.0 0.00 0.00 0.00 75 920.2
20260507012540 46 45 30.0 0.0 0.00 0.00 0.00 75 920.3
20260507012432 46 315 2.0 0.0 0.00 0.00 0.00 75 920.3
20260507012324 46 45 23.0 0.0 0.00 0.00 0.00 75 920.3
20260507012215 46 0 10.0 0.0 0.00 0.00 0.00 75 920.2
20260507012108 46 0 12.0 0.0 0.00 0.00 0.00 75 920.2
20260507011959 46 45 21.0 0.0 0.00 0.00 0.00 75 920.2
20260507011851 46 0 28.0 0.0 0.00 0.00 0.00 75 920.2
20260507011742 46 0 22.0 0.0 0.00 0.00 0.00 75 920.2
20260507011634 46 45 17.0 0.0 0.00 0.00 0.00 75 920.2
20260507011526 46 315 8.0 0.0 0.00 0.00 0.00 75 920.2
20260507011417 46 315 14.0 0.0 0.00 0.00 0.00 75 920.2
20260507011309 46 45 10.0 0.0 0.00 0.00 0.00 75 920.1
20260507011201 46 0 15.0 0.0 0.00 0.00 0.00 75 920.2
20260507011053 46 0 65.0 0.0 0.00 0.00 0.00 75 920.1
20260507010944 46 0 36.0 0.0 0.00 0.00 0.00 75 920.1
20260507010836 46 0 62.0 0.0 0.00 0.00 0.00 75 920.1
20260507010728 46 0 45.0 0.0 0.00 0.00 0.00 75 920.0
20260507010620 46 45 34.0 0.0 0.00 0.00 0.00 75 920.1
20260507010511 46 0 37.0 0.0 0.00 0.00 0.00 75 920.1
20260507010403 46 0 5.0 0.0 0.00 0.00 0.00 75 920.1
20260507010255 46 90 37.0 0.0 0.00 0.00 0.00 75 920.2
20260507010146 46 45 41.0 0.0 0.00 0.00 0.00 75 920.1
20260507010038 46 0 32.0 0.0 0.00 0.00 0.00 75 920.1
20260507005930 46 315 39.0 0.0 0.00 0.00 0.00 75 920.1
20260507005822 46 45 33.0 0.0 0.00 0.00 0.00 75 920.1
20260507005713 46 315 46.0 0.0 0.00 0.00 0.00 75 920.1
20260507005605 45 45 32.0 0.0 0.00 0.00 0.00 75 920.0
20260507005457 45 315 44.0 0.0 0.00 0.00 0.00 75 920.0
20260507005349 45 45 16.0 0.0 0.00 0.00 0.00 75 920.0
20260507005240 45 0 18.0 0.0 0.00 0.00 0.00 75 920.0
20260507005132 45 0 14.0 0.0 0.00 0.00 0.00 75 920.0
20260507005024 45 315 8.0 0.0 0.00 0.00 0.00 75 920.1
20260507004915 45 45 10.0 0.0 0.00 0.00 0.00 75 920.1
20260507004807 45 225 0.0 0.0 0.00 0.00 0.00 75 920.1
20260507004659 45 315 11.0 0.0 0.00 0.00 0.00 75 920.2
20260507004551 45 0 0.0 0.0 0.00 0.00 0.00 75 920.2
20260507004442 46 315 0.0 0.0 0.00 0.00 0.00 75 920.2
20260507004334 46 270 0.0 0.0 0.00 0.00 0.00 75 920.2
20260507004226 46 0 10.0 0.0 0.00 0.00 0.00 75 920.2
20260507004117 46 0 15.0 0.0 0.00 0.00 0.00 75 920.2
20260507004009 46 0 3.0 0.0 0.00 0.00 0.00 75 920.2
20260507003901 46 0 1.0 0.0 0.00 0.00 0.00 76 920.3
20260507003644 46 315 1.0 0.0 0.00 0.00 0.00 76 920.2
20260507003536 46 0 1.0 0.0 0.00 0.00 0.00 76 920.3
20260507003428 45 315 2.0 0.0 0.00 0.00 0.00 76 920.3
20260507003320 45 0 9.0 0.0 0.00 0.00 0.00 76 920.3
20260507003211 45 45 0.0 0.0 0.00 0.00 0.00 76 920.2
20260507003103 45 315 0.0 0.0 0.00 0.00 0.00 76 920.3
20260507002955 45 0 15.0 0.0 0.00 0.00 0.00 76 920.2
20260507002846 45 0 0.0 0.0 0.00 0.00 0.00 76 920.2
20260507002738 45 315 0.0 0.0 0.00 0.00 0.00 76 920.3
20260507002630 45 315 0.0 0.0 0.00 0.00 0.00 76 920.2
20260507002522 45 315 7.0 0.0 0.00 0.00 0.00 75 920.2
20260507002414 45 315 3.0 0.0 0.00 0.00 0.00 75 920.2
20260507002306 45 315 0.0 0.0 0.00 0.00 0.00 75 920.2
20260507002157 45 0 0.0 0.0 0.00 0.00 0.00 75 920.2
20260507002048 45 315 0.0 0.0 0.00 0.00 0.00 75 920.2
20260507001940 45 315 0.0 0.0 0.00 0.00 0.00 75 920.2
20260507001832 45 315 0.0 0.0 0.00 0.00 0.00 75 920.2
20260507001724 45 315 0.0 0.0 0.00 0.00 0.00 75 920.2
20260507001615 45 315 1.0 0.0 0.00 0.00 0.00 75 920.2
20260507001507 45 0 0.0 0.0 0.00 0.00 0.00 75 920.3
20260507001359 45 315 0.0 0.0 0.00 0.00 0.00 75 920.2
20260507001251 45 315 0.0 0.0 0.00 0.00 0.00 75 920.2
20260507001142 45 315 0.0 0.0 0.00 0.00 0.00 75 920.2
20260507001034 45 315 0.0 0.0 0.00 0.00 0.00 75 920.2
20260507000926 45 315 0.0 0.0 0.00 0.00 0.00 75 920.2
20260507000817 44 315 0.0 0.0 0.00 0.00 0.00 75 920.2
20260507000709 44 315 0.0 0.0 0.00 0.00 0.00 75 920.2
20260507000601 44 315 0.0 0.0 0.00 0.00 0.00 75 920.2
20260507000453 44 315 0.0 0.0 0.00 0.00 0.00 75 920.2
20260507000344 44 0 0.0 0.0 0.00 0.00 0.00 75 920.2
20260507000236 44 0 4.0 0.0 0.00 0.00 0.00 75 920.2
20260507000128 44 0 9.0 0.0 0.00 0.00 0.00 75 920.2
20260507000019 44 0 25.0 0.0 0.00 0.00 0.00 75 920.1
20260506235911 44 0 14.0 0.0 0.00 0.00 0.00 75 920.1
20260506235803 44 0 13.0 0.0 0.00 0.00 0.00 75 920.1
20260506235655 44 0 21.0 0.0 0.00 0.00 0.00 75 920.1
20260506235546 44 0 0.0 0.0 0.00 0.00 0.00 75 920.2
20260506235438 44 315 0.0 0.0 0.00 0.00 0.00 75 920.2
20260506235330 44 90 0.0 0.0 0.00 0.00 0.00 74 920.2
20260506235222 43 90 6.0 0.0 0.00 0.00 0.00 74 920.2
20260506235113 43 0 0.0 0.0 0.00 0.00 0.00 74 920.2
20260506235006 43 45 0.0 0.0 0.00 0.00 0.00 74 920.2
20260506234857 43 315 0.0 0.0 0.00 0.00 0.00 74 920.2
20260506234640 43 270 6.0 0.0 0.00 0.00 0.00 73 920.2
20260506234532 43 270 0.0 0.0 0.00 0.00 0.00 73 920.1
20260506234424 43 270 3.0 0.0 0.00 0.00 0.00 73 920.2
20260506234315 43 270 6.0 0.0 0.00 0.00 0.00 73 920.2
20260506234207 43 270 0.0 0.0 0.00 0.00 0.00 73 920.1
20260506234059 43 315 1.0 0.0 0.00 0.00 0.00 73 920.1
20260506233950 43 315 1.0 0.0 0.00 0.00 0.00 73 920.1
20260506233842 43 315 1.0 0.0 0.00 0.00 0.00 73 920.0
20260506233734 43 270 0.0 0.0 0.00 0.00 0.00 73 920.0
20260506233626 43 90 2.0 0.0 0.00 0.00 0.00 73 920.0
20260506233517 43 315 0.0 0.0 0.00 0.00 0.00 73 920.0
20260506233409 44 270 2.0 0.0 0.00 0.00 0.00 73 920.0
20260506233301 44 270 4.0 0.0 0.00 0.00 0.00 73 920.0
20260506233153 44 270 0.0 0.0 0.00 0.00 0.00 73 919.9
20260506233045 44 135 0.0 0.0 0.00 0.00 0.00 73 920.0
20260506232936 44 315 1.0 0.0 0.00 0.00 0.00 73 920.0
20260506232828 44 0 13.0 0.0 0.00 0.00 0.00 72 920.0
20260506232719 44 315 23.0 0.0 0.00 0.00 0.00 72 920.0
20260506232611 44 0 20.0 0.0 0.00 0.00 0.00 72 920.0
20260506232503 44 0 10.0 0.0 0.00 0.00 0.00 72 920.0
20260506232355 44 45 10.0 0.0 0.00 0.00 0.00 72 920.0
20260506232246 44 315 0.0 0.0 0.00 0.00 0.00 72 920.0
20260506232138 44 315 0.0 0.0 0.00 0.00 0.00 72 920.1
20260506232030 44 315 0.0 0.0 0.00 0.00 0.00 72 920.1
20260506231922 44 315 0.0 0.0 0.00 0.00 0.00 72 920.1
20260506231813 44 270 0.0 0.0 0.00 0.00 0.00 72 920.1
20260506231705 44 0 0.0 0.0 0.00 0.00 0.00 72 920.1
20260506231557 44 45 4.0 0.0 0.00 0.00 0.00 72 920.1
20260506231448 45 315 10.0 0.0 0.00 0.00 0.00 72 920.1
20260506231340 45 315 0.0 0.0 0.00 0.00 0.00 72 920.2
20260506231232 45 315 0.0 0.0 0.00 0.00 0.00 72 920.2
20260506231015 45 315 0.0 0.0 0.00 0.00 0.00 72 920.2
20260506230907 45 315 1.0 0.0 0.00 0.00 0.00 72 920.2
20260506230759 46 315 1.0 0.0 0.00 0.00 0.00 73 920.2
20260506230651 46 270 0.0 0.0 0.00 0.00 0.00 73 920.2
20260506230542 46 315 0.0 0.0 0.00 0.00 0.00 73 920.3
20260506230434 46 315 8.0 0.0 0.00 0.00 0.00 73 920.3
20260506230326 46 315 15.0 0.0 0.00 0.00 0.00 73 920.3
20260506230217 46 0 0.0 0.0 0.00 0.00 0.00 73 920.2
20260506230109 47 315 4.0 0.0 0.00 0.00 0.00 73 920.3
20260506230001 47 315 3.0 0.0 0.00 0.00 0.00 73 920.3
20260506225853 47 315 10.0 0.0 0.00 0.00 0.00 74 920.3
20260506225744 47 315 8.0 0.0 0.00 0.00 0.00 74 920.3
20260506225636 47 0 26.0 0.0 0.00 0.00 0.00 74 920.2
20260506225528 47 45 11.0 0.0 0.00 0.00 0.00 74 920.2
20260506225420 47 45 15.0 0.0 0.00 0.00 0.00 74 920.2
20260506225311 47 45 12.0 0.0 0.00 0.00 0.00 74 920.2
20260506225203 47 0 20.0 0.0 0.00 0.00 0.00 74 920.2
20260506225055 48 0 10.0 0.0 0.00 0.00 0.00 74 920.2
20260506224946 48 315 0.0 0.0 0.00 0.00 0.00 74 920.1
20260506224838 48 315 8.0 0.0 0.00 0.00 0.00 74 920.2
20260506224730 48 315 7.0 0.0 0.00 0.00 0.00 74 920.2
20260506224622 48 0 2.0 0.0 0.00 0.00 0.00 75 920.2
20260506224513 48 180 12.0 0.0 0.00 0.00 0.00 75 920.2
20260506224405 48 45 0.0 0.0 0.00 0.00 0.00 75 920.2
20260506224257 48 0 16.0 0.0 0.00 0.00 0.00 75 920.2
20260506224148 48 45 2.0 0.0 0.00 0.00 0.00 75 920.1
20260506224040 49 315 10.0 0.0 0.00 0.00 0.00 75 920.2
20260506223932 49 0 2.0 0.0 0.00 0.00 0.00 75 920.2
20260506223824 49 0 2.0 0.0 0.00 0.00 0.00 75 920.2
20260506223607 49 0 17.0 0.0 0.00 0.00 0.00 75 920.2
20260506223459 49 90 14.0 0.0 0.00 0.00 0.00 75 920.2
20260506223350 49 45 22.0 0.0 0.00 0.00 0.00 76 920.2
20260506223242 49 45 7.0 0.0 0.00 0.00 0.00 76 920.2
20260506223134 49 0 7.0 0.0 0.00 0.00 0.00 76 920.2
20260506223026 49 315 10.0 0.0 0.00 0.00 0.00 76 920.1
20260506222917 49 135 19.0 0.0 0.00 0.00 0.00 76 920.2
20260506222809 49 180 29.0 0.0 0.00 0.00 0.00 76 920.1
20260506222701 49 225 0.0 0.0 0.00 0.00 0.00 76 920.1
20260506222553 49 270 9.0 0.0 0.00 0.00 0.00 76 920.1
20260506222444 49 315 2.0 0.0 0.00 0.00 0.00 76 920.1
20260506222336 49 45 1.0 0.0 0.00 0.00 0.00 76 920.1
20260506222228 49 90 6.0 0.0 0.00 0.00 0.00 76 920.1
20260506222120 49 0 11.0 0.0 0.00 0.00 0.00 76 920.1
20260506222011 49 180 9.0 0.0 0.00 0.00 0.00 75 920.1
20260506221903 49 90 9.0 0.0 0.00 0.00 0.00 75 920.1
20260506221755 49 135 17.0 0.0 0.00 0.00 0.00 75 920.0
20260506221646 49 135 21.0 0.0 0.00 0.00 0.00 75 920.0
20260506221538 49 315 26.0 0.0 0.00 0.00 0.00 75 920.0
20260506221430 49 135 9.0 0.0 0.00 0.00 0.00 75 920.0
20260506221322 49 45 38.0 0.0 0.00 0.00 0.00 75 920.0
20260506221213 49 45 14.0 0.0 0.00 0.00 0.00 75 919.9
20260506221105 50 45 41.0 0.0 0.00 0.00 0.00 75 920.0
20260506220957 50 45 20.0 0.0 0.00 0.00 0.00 75 920.0
20260506220848 50 0 56.0 0.0 0.00 0.00 0.00 75 919.9
20260506220740 50 0 26.0 0.0 0.00 0.00 0.00 76 919.9
20260506220632 50 45 25.0 0.0 0.00 0.00 0.00 76 919.9
20260506220524 50 0 16.0 0.0 0.00 0.00 0.00 76 919.9
20260506220415 50 0 11.0 0.0 0.00 0.00 0.00 76 919.9
20260506220307 50 0 20.0 0.0 0.00 0.00 0.00 76 919.9
20260506220200 50 0 40.0 0.0 0.00 0.00 0.00 76 919.8
20260506220050 50 45 7.0 0.0 0.00 0.00 0.00 76 919.8
20260506215942 50 0 56.0 0.0 0.00 0.00 0.00 76 919.9
20260506215834 50 135 24.0 0.0 0.00 0.00 0.00 76 919.8
20260506215726 50 315 13.0 0.0 0.00 0.00 0.00 76 919.8
20260506215617 50 45 27.0 0.0 0.00 0.00 0.00 76 919.8
20260506215509 50 45 52.0 0.0 0.00 0.00 0.00 76 919.8
20260506215401 50 315 33.0 0.0 0.00 0.00 0.00 76 919.8
20260506215253 50 315 16.0 0.0 0.00 0.00 0.00 75 919.8
20260506215144 50 315 39.0 0.0 0.00 0.00 0.00 75 919.8
20260506215036 50 0 13.0 0.0 0.00 0.00 0.00 75 919.7
20260506214928 50 315 75.0 0.0 0.00 0.00 0.00 75 919.7
20260506214819 50 0 56.0 0.0 0.00 0.00 0.00 75 919.7
20260506214711 50 45 35.0 0.0 0.00 0.00 0.00 75 919.6
20260506214603 50 45 48.0 0.0 0.00 0.00 0.00 75 919.7
20260506214455 50 0 45.0 0.0 0.00 0.00 0.00 76 919.6
20260506214346 50 0 28.0 0.0 0.00 0.00 0.00 76 919.7
20260506214238 50 45 10.0 0.0 0.00 0.00 0.00 75 919.7
20260506214130 51 45 41.0 0.0 0.00 0.00 0.00 76 919.7
20260506214021 51 315 13.0 0.0 0.00 0.00 0.00 76 919.7
20260506213913 51 315 20.0 0.0 0.00 0.00 0.00 76 919.7
20260506213805 51 45 17.0 0.0 0.00 0.00 0.00 76 919.6
20260506213657 51 90 27.0 0.0 0.00 0.00 0.00 76 919.6
20260506213548 51 0 5.0 0.0 0.00 0.00 0.00 76 919.6
20260506213440 51 45 14.0 0.0 0.00 0.00 0.00 76 919.7
20260506213332 51 45 13.0 0.0 0.00 0.00 0.00 76 919.7
20260506213224 51 45 10.0 0.0 0.00 0.00 0.00 76 919.6
20260506213115 51 0 32.0 0.0 0.00 0.00 0.00 76 919.7
20260506213007 51 0 18.0 0.0 0.00 0.00 0.00 76 919.7
20260506212900 51 315 9.0 0.0 0.00 0.00 0.00 76 919.7
20260506212750 51 45 9.0 0.0 0.00 0.00 0.00 76 919.7
20260506212642 51 45 3.0 0.0 0.00 0.00 0.00 76 919.6
20260506212534 51 0 28.0 0.0 0.00 0.00 0.00 76 919.7
20260506212426 51 90 28.0 0.0 0.00 0.00 0.00 76 919.7
20260506212317 51 315 21.0 0.0 0.00 0.00 0.00 76 919.6
20260506212209 51 45 30.0 0.0 0.00 0.00 0.00 76 919.6
20260506212101 51 45 32.0 0.0 0.00 0.00 0.00 76 919.6
20260506211953 51 45 46.0 0.0 0.00 0.00 0.00 76 919.6
20260506211844 51 0 43.0 0.0 0.00 0.00 0.00 76 919.6
20260506211736 51 45 35.0 0.0 0.00 0.00 0.00 76 919.6
20260506211628 51 0 8.0 0.0 0.00 0.00 0.00 76 919.6
20260506211519 51 45 11.0 0.0 0.00 0.00 0.00 76 919.6
20260506211411 51 315 0.0 0.0 0.00 0.00 0.00 75 919.7
20260506211303 51 45 8.0 0.0 0.00 0.00 0.00 75 919.6
20260506211155 51 0 16.0 0.0 0.00 0.00 0.00 75 919.6
20260506211046 51 0 24.0 0.0 0.00 0.00 0.00 75 919.5
20260506210938 51 90 36.0 0.0 0.00 0.00 0.00 75 919.5
20260506210830 51 0 44.0 0.0 0.00 0.00 0.00 75 919.5
20260506210722 51 0 46.0 0.0 0.00 0.00 0.00 76 919.4
20260506210613 51 0 31.0 0.0 0.00 0.00 0.00 76 919.4
20260506210505 51 45 54.0 0.0 0.00 0.00 0.00 76 919.4
20260506210357 51 0 57.0 0.0 0.00 0.00 0.00 76 919.4
20260506210248 51 315 10.0 0.0 0.00 0.00 0.00 75 919.4
20260506210140 51 90 56.0 0.0 0.00 0.00 0.00 75 919.5
20260506210032 51 315 30.0 0.0 0.00 0.00 0.00 75 919.4
20260506205924 51 45 4.0 0.0 0.00 0.00 0.00 75 919.4
20260506205815 51 315 17.0 0.0 0.00 0.00 0.00 75 919.4
20260506205707 51 0 17.0 0.0 0.00 0.00 0.00 75 919.4
20260506205559 51 315 13.0 0.0 0.00 0.00 0.00 75 919.4
20260506205450 51 45 41.0 0.0 0.00 0.00 0.00 75 919.3
20260506205342 51 45 24.0 0.0 0.00 0.00 0.00 75 919.3
20260506205234 51 315 3.0 0.0 0.00 0.00 0.00 75 919.3
20260506205126 51 315 0.0 0.0 0.00 0.00 0.00 75 919.3
20260506205018 51 270 26.0 0.0 0.00 0.00 0.00 75 919.3
20260506204909 51 0 49.0 0.0 0.00 0.00 0.00 75 919.3
20260506204801 51 90 15.0 0.0 0.00 0.00 0.00 75 919.2
20260506204652 51 270 25.0 0.0 0.00 0.00 0.00 75 919.2
20260506204544 51 45 50.0 0.0 0.00 0.00 0.00 75 919.2
20260506204436 51 45 15.0 0.0 0.00 0.00 0.00 75 919.2
20260506204328 51 0 45.0 0.0 0.00 0.00 0.00 75 919.2
20260506204219 51 45 54.0 0.0 0.00 0.00 0.00 75 919.1
20260506204111 51 0 22.0 0.0 0.00 0.00 0.00 75 919.2
20260506204003 51 180 22.0 0.0 0.00 0.00 0.00 75 919.2
20260506203855 51 45 30.0 0.0 0.00 0.00 0.00 75 919.1
20260506203746 51 45 41.0 0.0 0.00 0.00 0.00 74 919.1
20260506203638 51 270 46.0 0.0 0.00 0.00 0.00 74 919.1
20260506203530 51 0 58.0 0.0 0.00 0.00 0.00 74 919.1
20260506203421 51 45 8.0 0.0 0.00 0.00 0.00 74 919.1
20260506203313 51 315 31.0 0.0 0.00 0.00 0.00 74 919.1
20260506203205 51 45 7.0 0.0 0.00 0.00 0.00 74 919.1
20260506203057 51 0 41.0 0.0 0.00 0.00 0.00 74 919.0
20260506202948 51 0 43.0 0.0 0.00 0.00 0.00 74 919.0
20260506202840 52 45 38.0 0.0 0.00 0.00 0.00 74 919.0
20260506202732 52 45 10.0 0.0 0.00 0.00 0.00 74 918.9
20260506202624 52 180 19.0 0.0 0.00 0.00 0.00 74 919.0
20260506202515 52 0 2.0 0.0 0.00 0.00 0.00 74 918.9
20260506202407 52 45 19.0 0.0 0.00 0.00 0.00 74 919.0
20260506202259 52 315 2.0 0.0 0.00 0.00 0.00 74 918.9
20260506202150 52 90 21.0 0.0 0.00 0.00 0.00 74 918.9
20260506202042 52 0 18.0 0.0 0.00 0.00 0.00 74 918.9
20260506201934 52 45 72.0 0.0 0.00 0.00 0.00 74 918.9
20260506201826 52 0 77.0 0.0 0.00 0.00 0.00 74 918.9
20260506201717 52 45 30.0 0.0 0.00 0.00 0.00 74 918.8
20260506201609 53 315 32.0 0.0 0.00 0.00 0.00 74 918.9
20260506201501 53 45 14.0 0.0 0.00 0.00 0.00 74 918.9
20260506201352 53 90 79.0 0.0 0.00 0.00 0.00 74 918.9
20260506201244 53 0 63.0 0.0 0.00 0.00 0.00 75 918.8
20260506201136 53 0 38.0 0.0 0.00 0.00 0.00 75 918.8
20260506201028 53 315 28.0 0.0 0.00 0.00 0.00 75 918.8
20260506200919 53 45 75.0 0.0 0.00 0.00 0.00 75 918.8
20260506200811 53 0 56.0 0.0 0.00 0.00 0.00 75 918.7
20260506200703 53 0 33.0 0.0 0.00 0.00 0.00 75 918.8
20260506200555 53 0 54.0 0.0 0.00 0.00 0.00 75 918.7
20260506200446 53 315 21.0 0.0 0.00 0.00 0.00 75 918.7
20260506200338 53 45 44.0 0.0 0.00 0.00 0.00 75 918.7
20260506200230 53 45 51.0 0.0 0.00 0.00 0.00 75 918.7
20260506200121 53 0 18.0 0.0 0.00 0.00 0.00 75 918.7
20260506200013 53 90 58.0 0.0 0.00 0.00 0.00 75 918.7
20260506195905 54 315 16.0 0.0 0.00 0.00 0.00 75 918.7
20260506195757 54 315 26.0 0.0 0.00 0.00 0.00 75 918.8
20260506195649 54 0 28.0 0.0 0.00 0.00 0.00 75 918.7
20260506195540 54 90 9.0 0.0 0.00 0.00 0.00 75 918.7
20260506195432 54 135 7.0 0.0 0.00 0.00 0.00 75 918.7
20260506195323 54 180 24.0 0.0 0.00 0.00 0.00 75 918.7
20260506195215 54 315 13.0 0.0 0.00 0.00 0.00 75 918.7
20260506195107 54 270 4.0 0.0 0.00 0.00 0.00 75 918.7
20260506194959 54 0 15.0 0.0 0.00 0.00 0.00 75 918.7
20260506194850 54 315 21.0 0.0 0.00 0.00 0.00 75 918.7
20260506194742 54 315 23.0 0.0 0.00 0.00 0.00 75 918.7
20260506194634 54 0 4.0 0.0 0.00 0.00 0.00 75 918.6
20260506194526 54 135 21.0 0.0 0.00 0.00 0.00 75 918.7
20260506194417 54 315 10.0 0.0 0.00 0.00 0.00 75 918.7
20260506194309 54 90 7.0 0.0 0.00 0.00 0.00 74 918.6
20260506194201 54 45 0.0 0.0 0.00 0.00 0.00 74 918.7
20260506194052 54 90 1.0 0.0 0.00 0.00 0.00 74 918.6
20260506193944 54 315 5.0 0.0 0.00 0.00 0.00 74 918.7
20260506193836 54 315 8.0 0.0 0.00 0.00 0.00 74 918.6
20260506193728 55 45 13.0 0.0 0.00 0.00 0.00 74 918.6
20260506193619 55 90 37.0 0.0 0.00 0.00 0.00 74 918.6
20260506193511 55 315 24.0 0.0 0.00 0.00 0.00 74 918.5
20260506193403 55 180 21.0 0.0 0.00 0.00 0.00 74 918.5
20260506193254 55 135 5.0 0.0 0.00 0.00 0.00 74 918.6
20260506193146 55 135 6.0 0.0 0.00 0.00 0.00 74 918.5
20260506193038 55 180 11.0 0.0 0.00 0.00 0.00 74 918.6
20260506192930 55 90 0.0 0.0 0.00 0.00 0.00 74 918.6
20260506192821 55 90 13.0 0.0 0.00 0.00 0.00 74 918.6
20260506192713 55 90 0.0 0.0 0.00 0.00 0.00 75 918.5
20260506192605 55 45 11.0 0.0 0.00 0.00 0.00 75 918.5
20260506192457 55 180 24.0 0.0 0.00 0.00 0.00 75 918.5
20260506192348 56 315 8.0 0.0 0.00 0.00 0.00 75 918.4
20260506192240 56 45 7.0 0.0 0.00 0.00 0.00 75 918.4
20260506192132 56 315 15.0 0.0 0.00 0.00 0.00 75 918.4
20260506192023 56 180 7.0 0.0 0.00 0.00 0.00 75 918.4
20260506191915 56 315 8.0 0.0 0.00 0.00 0.00 75 918.3
20260506191807 56 180 49.0 0.0 0.00 0.00 0.00 75 918.4
20260506191659 56 180 35.0 0.0 0.00 0.00 0.00 75 918.3
20260506191550 56 180 13.0 0.0 0.00 0.00 0.00 75 918.3
20260506191442 56 135 7.0 0.0 0.00 0.00 0.00 75 918.3
20260506191334 56 270 8.0 0.0 0.00 0.00 0.00 75 918.2
20260506191225 56 180 15.0 0.0 0.00 0.00 0.00 75 918.2
20260506191117 56 135 4.0 0.0 0.00 0.00 0.00 75 918.2
20260506191009 56 135 11.0 0.0 0.00 0.00 0.00 75 918.2
20260506190901 56 135 22.0 0.0 0.00 0.00 0.00 75 918.2
20260506190752 56 135 20.0 0.0 0.00 0.00 0.00 75 918.1
20260506190644 56 90 18.0 0.0 0.00 0.00 0.00 75 918.1
20260506190536 56 0 23.0 0.0 0.00 0.00 0.00 75 918.0
20260506190428 56 90 20.0 0.0 0.00 0.00 0.00 75 918.0
20260506190319 57 45 15.0 0.0 0.00 0.00 0.00 75 918.0
20260506190211 57 135 23.0 0.0 0.00 0.00 0.00 75 918.0
20260506185954 57 315 15.0 0.0 0.00 0.00 0.00 75 918.0
20260506185846 57 270 22.0 0.0 0.00 0.00 0.00 75 918.0
20260506185738 57 90 17.0 0.0 0.00 0.00 0.00 75 918.0
20260506185630 57 315 35.0 0.0 0.00 0.00 0.00 75 918.0
20260506185521 57 0 19.0 0.0 0.00 0.00 0.00 75 918.0
20260506185307 57 270 0.0 0.0 0.00 0.00 0.00 75 917.9
20260506185157 57 315 1.0 0.0 0.00 0.00 0.00 75 917.9
20260506185048 57 315 15.0 0.0 0.00 0.00 0.00 75 917.8
20260506184940 57 0 13.0 0.0 0.00 0.00 0.00 75 917.8
20260506184832 57 0 28.0 0.0 0.00 0.00 0.00 74 917.7
20260506184723 57 90 3.0 0.0 0.00 0.00 0.00 74 917.7
20260506184507 57 270 2.0 0.0 0.00 0.00 0.00 74 917.7
20260506184359 57 315 5.0 0.0 0.00 0.00 0.00 74 917.6
20260506184250 57 315 5.0 0.0 0.00 0.00 0.00 74 917.6
20260506184142 57 315 1.0 0.0 0.00 0.00 0.00 74 917.5
20260506184034 57 315 10.0 0.0 0.00 0.00 0.00 74 917.5
20260506183926 57 315 11.0 0.0 0.00 0.00 0.00 74 917.5
20260506183817 57 0 1.0 0.0 0.00 0.00 0.00 74 917.5
20260506183709 57 270 17.0 0.0 0.00 0.00 0.00 74 917.4
20260506183601 57 90 9.0 0.0 0.00 0.00 0.00 74 917.5
20260506183452 58 315 13.0 0.0 0.00 0.00 0.00 74 917.4
20260506183344 58 270 27.0 0.0 0.00 0.00 0.00 74 917.4
20260506183236 58 180 8.0 0.0 0.00 0.00 0.00 74 917.4
20260506183128 58 270 7.0 0.0 0.00 0.00 0.00 74 917.3
20260506183020 58 270 16.0 0.0 0.00 0.00 0.00 74 917.3
20260506182911 58 225 10.0 0.0 0.00 0.00 0.00 74 917.3
20260506182803 58 180 14.0 0.0 0.00 0.00 0.00 74 917.3
20260506182654 58 180 2.0 0.0 0.00 0.00 0.00 74 917.2
20260506182546 58 180 7.0 0.0 0.00 0.00 0.00 74 917.2
20260506182438 58 180 10.0 0.0 0.00 0.00 0.00 74 917.2
20260506182329 58 180 13.0 0.0 0.00 0.00 0.00 74 917.2
20260506182221 59 135 8.0 0.0 0.00 0.00 0.00 74 917.2
20260506182112 59 135 15.0 0.0 0.00 0.00 0.00 74 917.2
20260506181856 59 90 0.0 0.0 0.00 0.00 0.00 74 917.2
20260506181747 59 0 0.0 0.0 0.00 0.00 0.00 74 917.2
20260506181640 59 225 3.0 0.0 0.00 0.00 0.00 74 917.2
20260506181530 59 135 9.0 0.0 0.00 0.00 0.00 74 917.1
20260506181422 59 225 23.0 0.0 0.00 0.00 0.00 74 917.1
20260506181313 59 225 20.0 0.0 0.00 0.00 0.00 74 917.0
20260506181205 59 0 6.0 0.0 0.00 0.00 0.00 73 917.0
20260506181056 59 225 0.0 0.0 0.00 0.00 0.00 73 917.0
20260506180949 59 45 0.0 0.0 0.00 0.00 0.00 73 917.0
20260506180840 60 0 12.0 0.0 0.00 0.00 0.00 73 916.9
20260506180731 60 90 1.0 0.0 0.00 0.00 0.00 73 916.9
20260506180623 60 0 12.0 0.0 0.00 0.00 0.00 73 916.9
20260506180514 60 315 7.0 0.0 0.00 0.00 0.00 73 916.9
20260506180406 60 315 0.0 0.0 0.00 0.00 0.00 73 916.8
20260506180257 60 0 0.0 0.0 0.00 0.00 0.00 73 916.8
20260506180149 60 135 32.0 0.0 0.00 0.00 0.00 73 916.8
20260506180040 60 225 39.0 0.0 0.00 0.00 0.00 73 916.8
20260506175932 61 180 38.0 0.0 0.00 0.00 0.00 73 916.7
20260506175824 61 180 42.0 0.0 0.00 0.00 0.00 73 916.7
20260506175715 61 225 32.0 0.0 0.00 0.00 0.00 73 916.7
20260506175607 61 135 23.0 0.0 0.00 0.00 0.00 73 916.6
20260506175458 61 90 19.0 0.0 0.00 0.00 0.00 73 916.5
20260506175350 61 90 12.0 0.0 0.00 0.00 0.00 73 916.5
20260506175241 61 90 27.0 0.0 0.00 0.00 0.00 73 916.4
20260506175133 61 180 40.0 0.0 0.00 0.00 0.00 73 916.5
20260506175025 62 135 20.0 0.0 0.00 0.00 0.00 73 916.4
20260506174916 62 135 1.0 0.0 0.00 0.00 0.00 73 916.4
20260506174808 62 315 19.0 0.0 0.00 0.00 0.00 73 916.4
20260506174659 62 135 8.0 0.0 0.00 0.00 0.00 73 916.3
20260506174551 62 225 32.0 0.0 0.00 0.00 0.00 73 916.3
20260506174442 62 180 23.0 0.0 0.00 0.00 0.00 73 916.2
20260506174334 62 180 32.0 0.0 0.00 0.00 0.00 73 916.2
20260506174225 62 180 22.0 0.0 0.00 0.00 0.00 73 916.2
20260506174117 62 135 1.0 0.0 0.00 0.00 0.00 73 916.1
20260506174009 62 135 34.0 0.0 0.00 0.00 0.00 73 916.0
20260506173900 62 180 21.0 0.0 0.00 0.00 0.00 73 916.0
20260506173752 63 180 0.0 0.0 0.00 0.00 0.00 73 915.9
20260506173643 63 90 3.0 0.0 0.00 0.00 0.00 73 915.9
20260506173535 63 45 8.0 0.0 0.00 0.00 0.00 73 915.8
20260506173426 63 180 17.0 0.0 0.00 0.00 0.00 73 915.9
20260506173318 63 180 17.0 0.0 0.00 0.00 0.00 73 915.8
20260506173209 63 225 12.0 0.0 0.00 0.00 0.00 73 915.8
20260506173101 63 180 7.0 0.0 0.00 0.00 0.00 73 915.8
20260506172953 63 270 13.0 0.0 0.00 0.00 0.00 73 915.8
20260506172844 63 135 3.0 0.0 0.00 0.00 0.00 73 915.8
20260506172736 63 180 28.0 0.0 0.00 0.00 0.00 73 915.8
20260506172627 63 225 40.0 0.0 0.00 0.00 0.00 73 915.8
20260506172519 64 90 24.0 0.0 0.00 0.00 0.00 73 915.8
20260506172410 64 90 2.0 0.0 0.00 0.00 0.00 73 915.8
20260506172306 64 45 12.0 0.0 0.00 0.00 0.00 73 915.7
20260506172153 64 90 2.0 0.0 0.00 0.00 0.00 73 915.6
20260506172045 64 180 4.0 0.0 0.00 0.00 0.00 72 915.6
20260506171937 64 0 19.0 0.0 0.00 0.00 0.00 72 915.5
20260506171828 64 45 6.0 0.0 0.00 0.00 0.00 72 915.5
20260506171720 64 45 6.0 0.0 0.00 0.00 0.00 72 915.5
20260506171611 64 0 4.0 0.0 0.00 0.00 0.00 72 915.4
20260506171503 65 135 42.0 0.0 0.00 0.00 0.00 72 915.5
20260506171354 65 90 33.0 0.0 0.00 0.00 0.00 72 915.5
20260506171246 65 135 31.0 0.0 0.00 0.00 0.00 72 915.5
20260506171138 65 135 41.0 0.0 0.00 0.00 0.00 72 915.5
20260506171029 65 135 54.0 0.0 0.00 0.00 0.00 72 915.4
20260506170921 65 135 25.0 0.0 0.00 0.00 0.00 72 915.4
20260506170812 65 135 20.0 0.0 0.00 0.00 0.00 72 915.4
20260506170704 65 45 39.0 0.0 0.00 0.00 0.00 72 915.4
20260506170555 65 135 52.0 0.0 0.00 0.00 0.00 72 915.4
20260506170447 65 90 87.0 0.0 0.00 0.00 0.00 72 915.4
20260506170338 65 180 135.0 0.0 0.00 0.00 0.00 72 915.3
20260506170230 65 180 36.0 0.0 0.00 0.00 0.00 72 915.4
20260506170122 65 90 62.0 0.0 0.00 0.00 0.00 72 915.3
20260506170013 65 180 16.0 0.0 0.00 0.00 0.00 72 915.3
20260506165905 65 90 64.0 0.0 0.00 0.00 0.00 71 915.2
20260506165756 66 90 58.0 0.0 0.00 0.00 0.00 71 915.3
20260506165648 66 90 103.0 0.0 0.00 0.00 0.00 71 915.2
20260506165539 66 135 26.0 0.0 0.00 0.00 0.00 71 915.3
20260506165431 66 225 40.0 0.0 0.00 0.00 0.00 71 915.3
20260506165322 66 90 15.0 0.0 0.00 0.00 0.00 71 915.2
20260506165214 66 90 21.0 0.0 0.00 0.00 0.00 71 915.1
20260506165106 66 225 16.0 0.0 0.00 0.00 0.00 71 915.2
20260506164957 66 0 63.0 0.0 0.00 0.00 0.00 71 915.2
20260506164849 66 180 23.0 0.0 0.00 0.00 0.00 71 915.3
20260506164740 66 180 49.0 0.0 0.00 0.00 0.00 71 915.2
20260506164632 67 225 100.0 0.0 0.00 0.00 0.00 71 915.2
20260506164523 67 135 37.0 0.0 0.00 0.00 0.00 71 915.2
20260506164415 67 90 13.0 0.0 0.00 0.00 0.00 71 915.0
20260506164307 67 90 32.0 0.0 0.00 0.00 0.00 71 915.0
20260506164158 67 180 82.0 0.0 0.00 0.00 0.00 71 915.0
20260506164050 67 135 12.0 0.0 0.00 0.00 0.00 71 915.2
20260506163941 68 135 53.0 0.0 0.00 0.00 0.00 71 915.1
20260506163833 68 90 13.0 0.0 0.00 0.00 0.00 70 915.1
20260506163724 68 315 21.0 0.0 0.00 0.00 0.00 70 915.0
20260506163616 68 90 16.0 0.0 0.00 0.00 0.00 70 915.0
20260506163508 68 135 19.0 0.0 0.00 0.00 0.00 70 915.0
20260506163359 68 270 88.0 0.0 0.00 0.00 0.00 70 914.9
20260506163251 69 180 7.0 0.0 0.00 0.00 0.00 70 914.9
20260506163142 69 90 17.0 0.0 0.00 0.00 0.00 70 915.0
20260506163034 69 90 13.0 0.0 0.00 0.00 0.00 70 914.9
20260506162925 69 225 51.0 0.0 0.00 0.00 0.00 69 914.9
20260506162817 69 135 23.0 0.0 0.00 0.00 0.00 69 914.9
20260506162708 70 90 72.0 0.0 0.00 0.00 0.00 69 914.9
20260506162600 70 135 12.0 0.0 0.00 0.00 0.00 69 914.9
20260506162451 70 90 35.0 0.0 0.00 0.00 0.00 69 914.8
20260506162343 70 135 23.0 0.0 0.00 0.00 0.00 69 914.9
20260506162235 71 180 36.0 0.0 0.00 0.00 0.00 69 914.8
20260506162126 71 225 57.0 0.0 0.00 0.00 0.00 69 914.8
20260506162018 71 90 78.0 0.0 0.00 0.00 0.00 69 914.8
20260506161909 71 135 51.0 0.0 0.00 0.00 0.00 69 914.7
20260506161801 71 180 46.0 0.0 0.00 0.00 0.00 69 914.8
20260506161652 71 225 34.0 0.0 0.00 0.00 0.00 69 914.7
20260506161544 71 90 34.0 0.0 0.00 0.00 0.00 69 914.7
20260506161436 71 225 48.0 0.0 0.00 0.00 0.00 69 914.8
20260506161327 71 225 38.0 0.0 0.00 0.00 0.00 70 914.7
20260506161219 71 180 46.0 0.0 0.00 0.00 0.00 70 914.7
20260506161110 71 135 17.0 0.0 0.00 0.00 0.00 70 914.7
20260506161002 71 90 28.0 0.0 0.00 0.00 0.00 70 914.7
20260506160853 70 180 21.0 0.0 0.00 0.00 0.00 70 914.7
20260506160745 70 180 52.0 0.0 0.00 0.00 0.00 70 914.6
20260506160636 70 225 28.0 0.0 0.00 0.00 0.00 70 914.7
20260506160528 70 90 16.0 0.0 0.00 0.00 0.00 70 914.7
20260506160420 70 180 31.0 0.0 0.00 0.00 0.00 70 914.7
20260506160311 70 135 31.0 0.0 0.00 0.00 0.00 70 914.7
20260506160203 70 225 32.0 0.0 0.00 0.00 0.00 70 914.7
20260506160054 70 180 31.0 0.0 0.00 0.00 0.00 69 914.7
20260506155946 71 90 43.0 0.0 0.00 0.00 0.00 69 914.7
20260506155837 71 180 29.0 0.0 0.00 0.00 0.00 69 914.6
20260506155729 71 90 32.0 0.0 0.00 0.00 0.00 69 914.6
20260506155620 71 180 26.0 0.0 0.00 0.00 0.00 69 914.7
20260506155512 71 180 28.0 0.0 0.00 0.00 0.00 69 914.7
20260506155404 71 135 43.0 0.0 0.00 0.00 0.00 69 914.7
20260506155147 71 180 39.0 0.0 0.00 0.00 0.00 68 914.6
20260506155038 72 180 28.0 0.0 0.00 0.00 0.00 68 914.6
20260506154930 72 180 33.0 0.0 0.00 0.00 0.00 68 914.6
20260506154821 72 225 84.0 0.0 0.00 0.00 0.00 68 914.6
20260506154713 72 180 57.0 0.0 0.00 0.00 0.00 67 914.6
20260506154605 72 180 59.0 0.0 0.00 0.00 0.00 67 914.5
20260506154456 73 90 65.0 0.0 0.00 0.00 0.00 67 914.5
20260506154348 73 135 28.0 0.0 0.00 0.00 0.00 67 914.5
20260506154239 73 90 21.0 0.0 0.00 0.00 0.00 67 914.5
20260506154131 74 90 12.0 0.0 0.00 0.00 0.00 66 914.5
20260506154023 74 180 57.0 0.0 0.00 0.00 0.00 66 914.5
20260506153914 74 180 40.0 0.0 0.00 0.00 0.00 66 914.5
20260506153805 75 225 36.0 0.0 0.00 0.00 0.00 65 914.4
20260506153657 75 225 67.0 0.0 0.00 0.00 0.00 65 914.4
20260506153549 75 225 32.0 0.0 0.00 0.00 0.00 65 914.4
20260506153440 76 270 50.0 0.0 0.00 0.00 0.00 65 914.4
20260506153332 76 135 46.0 0.0 0.00 0.00 0.00 64 914.5
20260506153223 76 180 28.0 0.0 0.00 0.00 0.00 64 914.5
20260506153115 77 225 47.0 0.0 0.00 0.00 0.00 64 914.4
20260506153006 77 180 42.0 0.0 0.00 0.00 0.00 64 914.3
20260506152858 77 180 69.0 0.0 0.00 0.00 0.00 64 914.4
20260506152749 78 90 52.0 0.0 0.00 0.00 0.00 63 914.2
20260506152641 78 180 53.0 0.0 0.00 0.00 0.00 63 914.4
20260506152533 79 180 59.0 0.0 0.00 0.00 0.00 63 914.3
20260506152424 79 225 16.0 0.0 0.00 0.00 0.00 62 914.2
20260506152316 80 90 73.0 0.0 0.00 0.00 0.00 62 914.2
20260506152207 80 135 66.0 0.0 0.00 0.00 0.00 62 914.2
20260506152059 80 180 83.0 0.0 0.00 0.00 0.00 62 914.2
20260506151950 80 225 102.0 0.0 0.00 0.00 0.00 62 914.1
20260506151842 80 180 53.0 0.0 0.00 0.00 0.00 62 914.2
20260506151734 80 180 55.0 0.0 0.00 0.00 0.00 62 914.2
20260506151625 80 225 49.0 0.0 0.00 0.00 0.00 62 914.3
20260506151517 79 90 64.0 0.0 0.00 0.00 0.00 64 914.3
20260506151408 76 180 44.0 0.0 0.00 0.00 0.00 65 914.3
20260506151300 76 90 50.0 0.0 0.00 0.00 0.00 66 914.2
20260506151151 76 90 41.0 0.0 0.00 0.00 0.00 66 914.2
20260506151043 76 90 40.0 0.0 0.00 0.00 0.00 66 914.2
20260506150934 76 180 49.0 0.0 0.00 0.00 0.00 66 914.3
20260506150826 76 180 25.0 0.0 0.00 0.00 0.00 66 914.2
20260506150718 76 135 2.0 0.0 0.00 0.00 0.00 66 914.1
20260506150609 76 180 4.0 0.0 0.00 0.00 0.00 66 914.3
20260506150501 76 270 13.0 0.0 0.00 0.00 0.00 66 914.2
20260506150352 76 225 6.0 0.0 0.00 0.00 0.00 65 914.2
20260506150244 76 270 23.0 0.0 0.00 0.00 0.00 65 914.2